Wetterdaten: Freitag, 01.03.2019
Datum Zeit Temp. Aussen Temp. o. S. +5cm Feuchte Auss Luftdruck Regen Sonnenschein Regendauer Solar Windben Empfang
01.03.2019 00:00 9,3 C 7,8 C 7,8 C 94 % 1011,1 hPa 0,0 l/m 0 min 2 min 0 W/m 9,7 km/h (2 Bft) 95,74 %
01.03.2019 00:02 9,3 C 7,8 C 7,2 C 94 % 1011,1 hPa 0,0 l/m 0 min 2 min 0 W/m 19,3 km/h (3 Bft) 97,50 %
01.03.2019 00:04 9,3 C 7,8 C 7,2 C 94 % 1011,1 hPa 0,2 l/m 0 min 2 min 0 W/m 12,9 km/h (3 Bft) 97,83 %
01.03.2019 00:07 9,2 C 7,8 C 7,2 C 94 % 1010,9 hPa 0,0 l/m 0 min 3 min 0 W/m 19,3 km/h (3 Bft) 97,18 %
01.03.2019 00:10 9,2 C 7,8 C 7,2 C 94 % 1011,0 hPa 0,2 l/m 0 min 3 min 0 W/m 22,5 km/h (4 Bft) 98,57 %
01.03.2019 00:12 9,2 C 7,8 C 7,2 C 94 % 1011,0 hPa 0,0 l/m 0 min 2 min 0 W/m 22,5 km/h (4 Bft) 97,87 %
01.03.2019 00:14 9,2 C 7,8 C 7,2 C 94 % 1011,0 hPa 0,0 l/m 0 min 2 min 0 W/m 12,9 km/h (3 Bft) 97,87 %
01.03.2019 00:16 9,2 C 7,8 C 7,2 C 94 % 1010,9 hPa 0,0 l/m 0 min 0 min 0 W/m 6,4 km/h (2 Bft) 97,83 %
01.03.2019 00:18 9,1 C 7,8 C 7,2 C 94 % 1010,9 hPa 0,0 l/m 0 min 0 min 0 W/m 12,9 km/h (3 Bft) 95,74 %
01.03.2019 00:20 9,1 C 7,8 C 7,2 C 94 % 1011,0 hPa 0,0 l/m 0 min 0 min 0 W/m 6,4 km/h (2 Bft) 97,87 %
01.03.2019 00:22 9,1 C 7,8 C 7,2 C 94 % 1010,9 hPa 0,0 l/m 0 min 0 min 0 W/m 12,9 km/h (3 Bft) 95,74 %
01.03.2019 00:24 9,1 C 7,8 C 7,2 C 94 % 1010,9 hPa 0,0 l/m 0 min 0 min 0 W/m 16,1 km/h (3 Bft) 100,00 %
01.03.2019 00:26 9,1 C 7,8 C 7,2 C 94 % 1010,8 hPa 0,0 l/m 0 min 0 min 0 W/m 12,9 km/h (3 Bft) 97,87 %
01.03.2019 00:28 9,1 C 7,8 C 7,2 C 94 % 1010,8 hPa 0,0 l/m 0 min 0 min 0 W/m 16,1 km/h (3 Bft) 100,00 %
01.03.2019 00:30 9,0 C 7,8 C 7,2 C 95 % 1010,7 hPa 0,0 l/m 0 min 0 min 0 W/m 9,7 km/h (2 Bft) 100,00 %
01.03.2019 00:32 9,0 C 7,8 C 7,2 C 95 % 1010,8 hPa 0,0 l/m 0 min 0 min 0 W/m 9,7 km/h (2 Bft) 100,00 %
01.03.2019 00:34 9,0 C 7,8 C 7,2 C 95 % 1010,8 hPa 0,0 l/m 0 min 0 min 0 W/m 9,7 km/h (2 Bft) 100,00 %
01.03.2019 00:36 9,0 C 7,8 C 7,2 C 95 % 1010,8 hPa 0,0 l/m 0 min 0 min 0 W/m 16,1 km/h (3 Bft) 97,87 %
01.03.2019 00:38 8,9 C 7,8 C 7,2 C 95 % 1010,7 hPa 0,0 l/m 0 min 0 min 0 W/m 16,1 km/h (3 Bft) 100,00 %
01.03.2019 00:40 8,9 C 7,8 C 7,2 C 95 % 1010,7 hPa 0,0 l/m 0 min 0 min 0 W/m 9,7 km/h (2 Bft) 100,00 %
01.03.2019 00:42 8,9 C 7,8 C 7,2 C 95 % 1010,7 hPa 0,0 l/m 0 min 0 min 0 W/m 6,4 km/h (2 Bft) 100,00 %
01.03.2019 00:44 8,9 C 7,8 C 7,2 C 95 % 1010,6 hPa 0,0 l/m 0 min 0 min 0 W/m 6,4 km/h (2 Bft) 100,00 %
01.03.2019 00:46 8,9 C 7,8 C 7,2 C 95 % 1010,6 hPa 0,0 l/m 0 min 0 min 0 W/m 9,7 km/h (2 Bft) 97,87 %
01.03.2019 00:48 8,9 C 7,8 C 7,2 C 95 % 1010,5 hPa 0,0 l/m 0 min 0 min 0 W/m 9,7 km/h (2 Bft) 100,00 %
01.03.2019 00:50 8,9 C 7,8 C 7,2 C 95 % 1010,5 hPa 0,0 l/m 0 min 0 min 0 W/m 6,4 km/h (2 Bft) 100,00 %
01.03.2019 00:52 8,9 C 7,8 C 7,2 C 95 % 1010,6 hPa 0,0 l/m 0 min 0 min 0 W/m 6,4 km/h (2 Bft) 100,00 %
01.03.2019 00:54 8,9 C 7,8 C 7,2 C 95 % 1010,5 hPa 0,0 l/m 0 min 0 min 0 W/m 3,2 km/h (1 Bft) 100,00 %
01.03.2019 00:56 8,9 C 7,8 C 7,2 C 95 % 1010,5 hPa 0,0 l/m 0 min 0 min 0 W/m 6,4 km/h (2 Bft) 100,00 %
01.03.2019 00:58 8,9 C 7,8 C 7,2 C 95 % 1010,5 hPa 0,0 l/m 0 min 0 min 0 W/m 3,2 km/h (1 Bft) 100,00 %
01.03.2019 01:00 8,9 C 7,8 C 7,2 C 95 % 1010,5 hPa 0,0 l/m 0 min 0 min 0 W/m 6,4 km/h (2 Bft) 100,00 %
01.03.2019 01:02 8,8 C 7,8 C 7,2 C 95 % 1010,5 hPa 0,0 l/m 0 min 0 min 0 W/m 9,7 km/h (2 Bft) 100,00 %
01.03.2019 01:04 8,8 C 7,8 C 7,2 C 95 % 1010,5 hPa 0,0 l/m 0 min 0 min 0 W/m 9,7 km/h (2 Bft) 100,00 %
01.03.2019 01:06 8,8 C 7,8 C 7,2 C 95 % 1010,4 hPa 0,0 l/m 0 min 0 min 0 W/m 12,9 km/h (3 Bft) 97,87 %
01.03.2019 01:08 8,8 C 7,8 C 7,2 C 95 % 1010,4 hPa 0,0 l/m 0 min 0 min 0 W/m 12,9 km/h (3 Bft) 97,87 %
01.03.2019 01:10 8,8 C 7,8 C 7,2 C 95 % 1010,4 hPa 0,0 l/m 0 min 0 min 0 W/m 12,9 km/h (3 Bft) 95,74 %
01.03.2019 01:12 8,8 C 7,8 C 7,2 C 95 % 1010,4 hPa 0,0 l/m 0 min 0 min 0 W/m 9,7 km/h (2 Bft) 97,87 %
01.03.2019 01:14 8,8 C 7,8 C 7,2 C 95 % 1010,4 hPa 0,0 l/m 0 min 0 min 0 W/m 9,7 km/h (2 Bft) 95,65 %
01.03.2019 01:16 8,8 C 7,8 C 7,2 C 95 % 1010,4 hPa 0,0 l/m 0 min 0 min 0 W/m 9,7 km/h (2 Bft) 97,87 %
01.03.2019 01:18 8,8 C 7,8 C 7,2 C 95 % 1010,3 hPa 0,0 l/m 0 min 0 min 0 W/m 6,4 km/h (2 Bft) 97,87 %
01.03.2019 01:20 8,8 C 7,8 C 7,2 C 95 % 1010,3 hPa 0,0 l/m 0 min 0 min 0 W/m 6,4 km/h (2 Bft) 97,87 %
01.03.2019 01:22 8,8 C 7,8 C 7,2 C 95 % 1010,3 hPa 0,0 l/m 0 min 0 min 0 W/m 6,4 km/h (2 Bft) 97,87 %
01.03.2019 01:24 8,8 C 7,8 C 7,2 C 95 % 1010,3 hPa 0,0 l/m 0 min 0 min 0 W/m 3,2 km/h (1 Bft) 97,87 %
01.03.2019 01:26 8,8 C 7,8 C 7,2 C 95 % 1010,3 hPa 0,0 l/m 0 min 0 min 0 W/m 9,7 km/h (2 Bft) 95,65 %
01.03.2019 01:28 8,8 C 7,8 C 7,2 C 95 % 1010,3 hPa 0,0 l/m 0 min 0 min 0 W/m 9,7 km/h (2 Bft) 97,87 %
01.03.2019 01:30 8,8 C 7,8 C 7,2 C 95 % 1010,2 hPa 0,0 l/m 0 min 0 min 0 W/m 6,4 km/h (2 Bft) 97,87 %
01.03.2019 01:32 8,8 C 7,8 C 7,2 C 95 % 1010,3 hPa 0,0 l/m 0 min 0 min 0 W/m 6,4 km/h (2 Bft) 93,62 %
01.03.2019 01:34 8,8 C 7,8 C 7,2 C 95 % 1010,3 hPa 0,0 l/m 0 min 2 min 0 W/m 16,1 km/h (3 Bft) 95,74 %
01.03.2019 01:36 8,8 C 7,8 C 7,2 C 95 % 1010,2 hPa 0,0 l/m 0 min 0 min 0 W/m 12,9 km/h (3 Bft) 95,74 %
01.03.2019 01:38 8,8 C 7,8 C 7,2 C 95 % 1010,2 hPa 0,0 l/m 0 min 0 min 0 W/m 9,7 km/h (2 Bft) 95,74 %
01.03.2019 01:40 8,8 C 7,8 C 7,2 C 95 % 1010,2 hPa 0,0 l/m 0 min 0 min 0 W/m 9,7 km/h (2 Bft) 95,74 %
01.03.2019 01:42 8,8 C 7,8 C 7,2 C 95 % 1010,1 hPa 0,0 l/m 0 min 2 min 0 W/m 9,7 km/h (2 Bft) 95,74 %
01.03.2019 01:44 8,8 C 7,8 C 7,2 C 95 % 1010,2 hPa 0,0 l/m 0 min 0 min 0 W/m 9,7 km/h (2 Bft) 97,87 %
01.03.2019 01:46 8,8 C 7,8 C 7,2 C 95 % 1010,1 hPa 0,0 l/m 0 min 0 min 0 W/m 16,1 km/h (3 Bft) 97,87 %
01.03.2019 01:48 8,8 C 7,8 C 7,2 C 95 % 1010,0 hPa 0,0 l/m 0 min 0 min 0 W/m 12,9 km/h (3 Bft) 93,62 %
01.03.2019 01:50 8,8 C 7,8 C 7,2 C 95 % 1010,0 hPa 0,0 l/m 0 min 0 min 0 W/m 3,2 km/h (1 Bft) 95,65 %
01.03.2019 01:52 8,8 C 7,8 C 7,2 C 95 % 1009,9 hPa 0,0 l/m 0 min 0 min 0 W/m 6,4 km/h (2 Bft) 97,87 %
01.03.2019 01:54 8,8 C 7,8 C 7,2 C 95 % 1010,0 hPa 0,0 l/m 0 min 0 min 0 W/m 9,7 km/h (2 Bft) 97,87 %
01.03.2019 01:56 8,8 C 7,8 C 7,2 C 95 % 1009,9 hPa 0,0 l/m 0 min 0 min 0 W/m 12,9 km/h (3 Bft) 97,87 %
01.03.2019 01:58 8,8 C 7,8 C 7,2 C 95 % 1009,9 hPa 0,0 l/m 0 min 0 min 0 W/m 6,4 km/h (2 Bft) 97,87 %
01.03.2019 02:00 8,8 C 7,8 C 7,2 C 95 % 1009,8 hPa 0,0 l/m 0 min 2 min 0 W/m 9,7 km/h (2 Bft) 97,87 %
01.03.2019 02:02 8,8 C 7,8 C 7,2 C 95 % 1009,9 hPa 0,0 l/m 0 min 2 min 0 W/m 19,3 km/h (3 Bft) 97,83 %
01.03.2019 02:04 8,8 C 7,8 C 7,2 C 95 % 1009,9 hPa 0,2 l/m 0 min 2 min 0 W/m 6,4 km/h (2 Bft) 93,62 %
01.03.2019 02:06 8,8 C 7,8 C 7,2 C 95 % 1009,8 hPa 0,0 l/m 0 min 2 min 0 W/m 3,2 km/h (1 Bft) 97,87 %
01.03.2019 02:08 8,8 C 7,8 C 7,2 C 95 % 1009,7 hPa 0,0 l/m 0 min 2 min 0 W/m 0,0 km/h (0 Bft) 95,83 %
01.03.2019 02:10 8,8 C 7,8 C 7,2 C 95 % 1009,7 hPa 0,0 l/m 0 min 2 min 0 W/m 6,4 km/h (2 Bft) 95,74 %
01.03.2019 02:12 8,8 C 7,8 C 7,2 C 95 % 1009,7 hPa 0,0 l/m 0 min 2 min 0 W/m 6,4 km/h (2 Bft) 95,65 %
01.03.2019 02:14 8,8 C 7,8 C 7,2 C 95 % 1009,7 hPa 0,0 l/m 0 min 2 min 0 W/m 6,4 km/h (2 Bft) 97,87 %
01.03.2019 02:16 8,8 C 7,8 C 7,2 C 95 % 1009,7 hPa 0,0 l/m 0 min 2 min 0 W/m 9,7 km/h (2 Bft) 97,87 %
01.03.2019 02:18 8,8 C 7,8 C 7,2 C 95 % 1009,7 hPa 0,0 l/m 0 min 2 min 0 W/m 3,2 km/h (1 Bft) 97,87 %
01.03.2019 02:20 8,8 C 7,8 C 7,2 C 95 % 1009,7 hPa 0,0 l/m 0 min 2 min 0 W/m 12,9 km/h (3 Bft) 95,74 %
01.03.2019 02:22 8,8 C 7,8 C 7,2 C 95 % 1009,7 hPa 0,0 l/m 0 min 2 min 0 W/m 6,4 km/h (2 Bft) 97,87 %
01.03.2019 02:24 8,8 C 7,8 C 7,2 C 95 % 1009,7 hPa 0,0 l/m 0 min 2 min 0 W/m 6,4 km/h (2 Bft) 97,83 %
01.03.2019 02:26 8,8 C 7,8 C 7,2 C 95 % 1009,7 hPa 0,0 l/m 0 min 0 min 0 W/m 6,4 km/h (2 Bft) 93,62 %
01.03.2019 02:28 8,8 C 7,8 C 7,2 C 95 % 1009,6 hPa 0,0 l/m 0 min 0 min 0 W/m 9,7 km/h (2 Bft) 97,87 %
01.03.2019 02:30 8,8 C 7,8 C 7,2 C 95 % 1009,5 hPa 0,0 l/m 0 min 0 min 0 W/m 3,2 km/h (1 Bft) 97,87 %
01.03.2019 02:32 8,8 C 7,8 C 7,2 C 95 % 1009,5 hPa 0,0 l/m 0 min 2 min 0 W/m 9,7 km/h (2 Bft) 95,74 %
01.03.2019 02:34 8,8 C 7,8 C 7,2 C 95 % 1009,5 hPa 0,0 l/m 0 min 0 min 0 W/m 9,7 km/h (2 Bft) 95,74 %
01.03.2019 02:36 8,8 C 7,8 C 7,2 C 95 % 1009,5 hPa 0,0 l/m 0 min 2 min 0 W/m 9,7 km/h (2 Bft) 100,00 %
01.03.2019 02:38 8,8 C 7,8 C 7,2 C 95 % 1009,5 hPa 0,0 l/m 0 min 0 min 0 W/m 9,7 km/h (2 Bft) 97,92 %
01.03.2019 02:40 8,8 C 7,8 C 7,2 C 95 % 1009,5 hPa 0,0 l/m 0 min 2 min 0 W/m 9,7 km/h (2 Bft) 100,00 %
01.03.2019 02:42 8,8 C 7,8 C 7,2 C 95 % 1009,5 hPa 0,0 l/m 0 min 0 min 0 W/m 16,1 km/h (3 Bft) 100,00 %
01.03.2019 02:44 8,8 C 7,8 C 7,2 C 95 % 1009,4 hPa 0,0 l/m 0 min 0 min 0 W/m 6,4 km/h (2 Bft) 100,00 %
01.03.2019 02:46 8,8 C 7,8 C 7,2 C 96 % 1009,5 hPa 0,0 l/m 0 min 2 min 0 W/m 6,4 km/h (2 Bft) 97,87 %
01.03.2019 02:48 8,8 C 7,8 C 7,2 C 96 % 1009,5 hPa 0,0 l/m 0 min 2 min 0 W/m 9,7 km/h (2 Bft) 100,00 %
01.03.2019 02:50 8,7 C 7,8 C 7,2 C 96 % 1009,5 hPa 0,2 l/m 0 min 2 min 0 W/m 9,7 km/h (2 Bft) 100,00 %
01.03.2019 02:52 8,7 C 7,8 C 7,2 C 96 % 1009,5 hPa 0,0 l/m 0 min 2 min 0 W/m 6,4 km/h (2 Bft) 97,87 %
01.03.2019 02:54 8,7 C 7,8 C 7,2 C 96 % 1009,4 hPa 0,0 l/m 0 min 2 min 0 W/m 3,2 km/h (1 Bft) 100,00 %
01.03.2019 02:56 8,7 C 7,8 C 7,2 C 96 % 1009,4 hPa 0,0 l/m 0 min 2 min 0 W/m 6,4 km/h (2 Bft) 100,00 %
01.03.2019 02:58 8,7 C 7,8 C 7,2 C 96 % 1009,5 hPa 0,0 l/m 0 min 2 min 0 W/m 6,4 km/h (2 Bft) 97,87 %
01.03.2019 03:00 8,7 C 7,8 C 7,2 C 96 % 1009,4 hPa 0,0 l/m 0 min 2 min 0 W/m 6,4 km/h (2 Bft) 95,65 %
01.03.2019 03:02 8,7 C 7,8 C 7,2 C 96 % 1009,5 hPa 0,0 l/m 0 min 2 min 0 W/m 6,4 km/h (2 Bft) 95,74 %
01.03.2019 03:04 8,7 C 7,8 C 7,2 C 96 % 1009,4 hPa 0,0 l/m 0 min 2 min 0 W/m 9,7 km/h (2 Bft) 97,87 %
01.03.2019 03:06 8,7 C 7,8 C 7,2 C 96 % 1009,4 hPa 0,0 l/m 0 min 2 min 0 W/m 9,7 km/h (2 Bft) 97,87 %
01.03.2019 03:08 8,7 C 7,8 C 7,2 C 96 % 1009,4 hPa 0,0 l/m 0 min 2 min 0 W/m 9,7 km/h (2 Bft) 97,87 %
01.03.2019 03:10 8,7 C 7,8 C 7,2 C 96 % 1009,4 hPa 0,0 l/m 0 min 2 min 0 W/m 6,4 km/h (2 Bft) 97,83 %
01.03.2019 03:12 8,7 C 7,8 C 7,2 C 96 % 1009,3 hPa 0,0 l/m 0 min 2 min 0 W/m 0,0 km/h (0 Bft) 97,87 %
01.03.2019 03:14 8,7 C 7,8 C 7,2 C 96 % 1009,4 hPa 0,0 l/m 0 min 2 min 0 W/m 0,0 km/h (0 Bft) 97,87 %
01.03.2019 03:16 8,7 C 7,8 C 7,2 C 96 % 1009,4 hPa 0,0 l/m 0 min 2 min 0 W/m 6,4 km/h (2 Bft) 95,74 %
01.03.2019 03:18 8,7 C 7,8 C 7,2 C 96 % 1009,4 hPa 0,0 l/m 0 min 2 min 0 W/m 0,0 km/h (0 Bft) 97,87 %
01.03.2019 03:20 8,7 C 7,8 C 7,2 C 96 % 1009,3 hPa 0,0 l/m 0 min 2 min 0 W/m 3,2 km/h (1 Bft) 95,74 %
01.03.2019 03:22 8,7 C 7,8 C 7,2 C 96 % 1009,3 hPa 0,2 l/m 0 min 2 min 0 W/m 12,9 km/h (3 Bft) 100,00 %
01.03.2019 03:24 8,7 C 7,2 C 7,2 C 96 % 1009,3 hPa 0,0 l/m 0 min 2 min 0 W/m 16,1 km/h (3 Bft) 97,87 %
01.03.2019 03:26 8,7 C 7,2 C 7,2 C 96 % 1009,3 hPa 0,0 l/m 0 min 2 min 0 W/m 12,9 km/h (3 Bft) 97,87 %
01.03.2019 03:28 8,7 C 7,2 C 7,2 C 96 % 1009,2 hPa 0,0 l/m 0 min 2 min 0 W/m 6,4 km/h (2 Bft) 97,87 %
01.03.2019 03:30 8,7 C 7,2 C 7,2 C 96 % 1009,2 hPa 0,0 l/m 0 min 2 min 0 W/m 6,4 km/h (2 Bft) 97,87 %
01.03.2019 03:32 8,7 C 7,2 C 7,2 C 96 % 1009,2 hPa 0,0 l/m 0 min 2 min 0 W/m 6,4 km/h (2 Bft) 95,74 %
01.03.2019 03:34 8,7 C 7,2 C 7,2 C 96 % 1009,2 hPa 0,0 l/m 0 min 0 min 0 W/m 9,7 km/h (2 Bft) 97,83 %
01.03.2019 03:36 8,6 C 7,2 C 7,2 C 96 % 1009,1 hPa 0,0 l/m 0 min 0 min 0 W/m 6,4 km/h (2 Bft) 95,74 %
01.03.2019 03:38 8,6 C 7,2 C 7,2 C 96 % 1009,1 hPa 0,0 l/m 0 min 0 min 0 W/m 6,4 km/h (2 Bft) 95,74 %
01.03.2019 03:40 8,6 C 7,2 C 7,2 C 96 % 1009,1 hPa 0,0 l/m 0 min 0 min 0 W/m 16,1 km/h (3 Bft) 97,87 %
01.03.2019 03:42 8,6 C 7,2 C 7,2 C 96 % 1009,1 hPa 0,0 l/m 0 min 0 min 0 W/m 3,2 km/h (1 Bft) 97,87 %
01.03.2019 03:44 8,6 C 7,2 C 7,2 C 96 % 1009,1 hPa 0,0 l/m 0 min 0 min 0 W/m 6,4 km/h (2 Bft) 97,87 %
01.03.2019 03:46 8,6 C 7,2 C 7,2 C 96 % 1009,0 hPa 0,0 l/m 0 min 0 min 0 W/m 6,4 km/h (2 Bft) 97,83 %
01.03.2019 03:48 8,6 C 7,2 C 7,2 C 96 % 1009,1 hPa 0,0 l/m 0 min 0 min 0 W/m 12,9 km/h (3 Bft) 95,74 %
01.03.2019 03:50 8,6 C 7,2 C 6,7 C 96 % 1009,1 hPa 0,0 l/m 0 min 0 min 0 W/m 6,4 km/h (2 Bft) 93,62 %
01.03.2019 03:52 8,5 C 7,2 C 6,7 C 96 % 1009,1 hPa 0,0 l/m 0 min 0 min 0 W/m 9,7 km/h (2 Bft) 95,74 %
01.03.2019 03:54 8,5 C 7,2 C 6,7 C 96 % 1009,0 hPa 0,0 l/m 0 min 0 min 0 W/m 9,7 km/h (2 Bft) 95,74 %
01.03.2019 03:56 8,5 C 7,2 C 6,7 C 96 % 1009,0 hPa 0,0 l/m 0 min 0 min 0 W/m 6,4 km/h (2 Bft) 95,74 %
01.03.2019 03:58 8,5 C 7,2 C 6,7 C 96 % 1009,0 hPa 0,0 l/m 0 min 0 min 0 W/m 3,2 km/h (1 Bft) 95,65 %
01.03.2019 04:00 8,4 C 7,2 C 6,7 C 96 % 1009,0 hPa 0,0 l/m 0 min 0 min 0 W/m 6,4 km/h (2 Bft) 95,74 %
01.03.2019 04:02 8,4 C 7,2 C 6,7 C 96 % 1009,0 hPa 0,0 l/m 0 min 0 min 0 W/m 0,0 km/h (0 Bft) 92,31 %
01.03.2019 04:04 8,4 C 7,2 C 6,7 C 96 % 1009,0 hPa 0,0 l/m 0 min 0 min 0 W/m 3,2 km/h (1 Bft) 95,74 %
01.03.2019 04:06 8,4 C 7,2 C 6,7 C 96 % 1008,9 hPa 0,0 l/m 0 min 0 min 0 W/m 3,2 km/h (1 Bft) 95,74 %
01.03.2019 04:08 8,4 C 7,2 C 6,7 C 96 % 1008,9 hPa 0,0 l/m 0 min 0 min 0 W/m 6,4 km/h (2 Bft) 97,87 %
01.03.2019 04:10 8,4 C 7,2 C 6,7 C 96 % 1008,9 hPa 0,0 l/m 0 min 0 min 0 W/m 0,0 km/h (0 Bft) 93,62 %
01.03.2019 04:12 8,4 C 7,2 C 6,7 C 96 % 1008,9 hPa 0,0 l/m 0 min 0 min 0 W/m 0,0 km/h (0 Bft) 97,87 %
01.03.2019 04:14 8,4 C 7,2 C 6,7 C 96 % 1008,9 hPa 0,0 l/m 0 min 0 min 0 W/m 0,0 km/h (0 Bft) 97,87 %
01.03.2019 04:16 8,4 C 7,2 C 6,7 C 96 % 1008,9 hPa 0,0 l/m 0 min 0 min 0 W/m 0,0 km/h (0 Bft) 97,83 %
01.03.2019 04:18 8,4 C 7,2 C 6,7 C 96 % 1008,9 hPa 0,0 l/m 0 min 0 min 0 W/m 0,0 km/h (0 Bft) 95,74 %
01.03.2019 04:20 8,4 C 7,2 C 6,7 C 96 % 1008,9 hPa 0,0 l/m 0 min 0 min 0 W/m 3,2 km/h (1 Bft) 93,62 %
01.03.2019 04:22 8,4 C 7,2 C 6,7 C 96 % 1008,9 hPa 0,0 l/m 0 min 0 min 0 W/m 0,0 km/h (0 Bft) 97,87 %
01.03.2019 04:24 8,3 C 7,2 C 6,7 C 96 % 1008,8 hPa 0,0 l/m 0 min 2 min 0 W/m 0,0 km/h (0 Bft) 95,74 %
01.03.2019 04:26 8,3 C 7,2 C 6,7 C 96 % 1008,9 hPa 0,0 l/m 0 min 2 min 0 W/m 6,4 km/h (2 Bft) 97,87 %
01.03.2019 04:28 8,3 C 7,2 C 6,7 C 96 % 1008,9 hPa 0,0 l/m 0 min 2 min 0 W/m 0,0 km/h (0 Bft) 95,65 %
01.03.2019 04:30 8,3 C 7,2 C 6,7 C 96 % 1008,9 hPa 0,0 l/m 0 min 2 min 0 W/m 3,2 km/h (1 Bft) 97,87 %
01.03.2019 04:32 8,3 C 7,2 C 6,7 C 96 % 1008,9 hPa 0,0 l/m 0 min 0 min 0 W/m 9,7 km/h (2 Bft) 97,87 %
01.03.2019 04:34 8,3 C 7,2 C 7,2 C 96 % 1008,8 hPa 0,0 l/m 0 min 0 min 0 W/m 3,2 km/h (1 Bft) 97,87 %
01.03.2019 04:36 8,3 C 7,2 C 7,2 C 96 % 1008,8 hPa 0,0 l/m 0 min 0 min 0 W/m 0,0 km/h (0 Bft) 95,74 %
01.03.2019 04:38 8,4 C 7,2 C 7,2 C 96 % 1008,9 hPa 0,0 l/m 0 min 0 min 0 W/m 3,2 km/h (1 Bft) 97,87 %
01.03.2019 04:40 8,4 C 7,2 C 7,2 C 96 % 1008,8 hPa 0,0 l/m 0 min 0 min 0 W/m 0,0 km/h (0 Bft) 95,65 %
01.03.2019 04:42 8,4 C 7,2 C 7,2 C 96 % 1008,9 hPa 0,0 l/m 0 min 0 min 0 W/m 0,0 km/h (0 Bft) 95,74 %
01.03.2019 04:44 8,4 C 7,2 C 7,2 C 96 % 1008,8 hPa 0,0 l/m 0 min 0 min 0 W/m 0,0 km/h (0 Bft) 95,74 %
01.03.2019 04:46 8,4 C 7,2 C 7,2 C 96 % 1008,8 hPa 0,0 l/m 0 min 0 min 0 W/m 6,4 km/h (2 Bft) 97,87 %
01.03.2019 04:48 8,4 C 7,2 C 7,2 C 96 % 1008,8 hPa 0,0 l/m 0 min 0 min 0 W/m 6,4 km/h (2 Bft) 97,87 %
01.03.2019 04:50 8,4 C 7,2 C 7,2 C 96 % 1008,8 hPa 0,0 l/m 0 min 0 min 0 W/m 0,0 km/h (0 Bft) 97,87 %
01.03.2019 04:52 8,4 C 7,2 C 7,2 C 96 % 1008,8 hPa 0,0 l/m 0 min 0 min 0 W/m 0,0 km/h (0 Bft) 93,48 %
01.03.2019 04:54 8,4 C 7,2 C 7,2 C 96 % 1008,8 hPa 0,0 l/m 0 min 0 min 0 W/m 3,2 km/h (1 Bft) 95,74 %
01.03.2019 04:56 8,4 C 7,2 C 7,2 C 96 % 1008,8 hPa 0,0 l/m 0 min 0 min 0 W/m 0,0 km/h (0 Bft) 97,87 %
01.03.2019 04:58 8,4 C 7,2 C 7,2 C 96 % 1008,8 hPa 0,0 l/m 0 min 0 min 0 W/m 6,4 km/h (2 Bft) 97,87 %
01.03.2019 05:00 8,4 C 7,2 C 7,2 C 96 % 1008,8 hPa 0,0 l/m 0 min 0 min 0 W/m 0,0 km/h (0 Bft) 97,87 %
01.03.2019 05:02 8,4 C 7,2 C 7,2 C 96 % 1008,8 hPa 0,0 l/m 0 min 0 min 0 W/m 9,7 km/h (2 Bft) 97,83 %
01.03.2019 05:04 8,4 C 7,2 C 7,2 C 96 % 1008,8 hPa 0,0 l/m 0 min 0 min 0 W/m 6,4 km/h (2 Bft) 97,87 %
01.03.2019 05:05 8,4 C 7,2 C 7,2 C 96 % 1008,8 hPa 0,0 l/m 0 min 0 min 0 W/m 9,7 km/h (2 Bft) 100,00 %
01.03.2019 05:10 8,4 C 7,2 C 7,2 C 96 % 1008,8 hPa 0,0 l/m 0 min 0 min 0 W/m 3,2 km/h (1 Bft) 100,00 %
01.03.2019 05:12 8,4 C 7,2 C 7,2 C 96 % 1008,8 hPa 0,0 l/m 0 min 0 min 0 W/m 3,2 km/h (1 Bft) 100,00 %
01.03.2019 05:14 8,4 C 7,2 C 7,2 C 96 % 1008,7 hPa 0,0 l/m 0 min 0 min 0 W/m 3,2 km/h (1 Bft) 100,00 %
01.03.2019 05:19 8,4 C 7,2 C 7,2 C 96 % 1008,8 hPa 0,0 l/m 0 min 0 min 0 W/m 3,2 km/h (1 Bft) 100,00 %
01.03.2019 05:20 8,4 C 7,2 C 6,7 C 96 % 1008,8 hPa 0,0 l/m 0 min 0 min 0 W/m 0,0 km/h (0 Bft) 100,00 %
01.03.2019 05:22 8,4 C 7,2 C 6,7 C 96 % 1008,8 hPa 0,0 l/m 0 min 0 min 0 W/m 0,0 km/h (0 Bft) 97,92 %
01.03.2019 05:24 8,4 C 7,2 C 6,7 C 96 % 1008,8 hPa 0,0 l/m 0 min 0 min 0 W/m 0,0 km/h (0 Bft) 100,00 %
01.03.2019 05:26 8,4 C 7,2 C 7,2 C 96 % 1008,8 hPa 0,0 l/m 0 min 0 min 0 W/m 0,0 km/h (0 Bft) 100,00 %
01.03.2019 05:28 8,4 C 7,2 C 7,2 C 96 % 1008,8 hPa 0,0 l/m 0 min 0 min 0 W/m 0,0 km/h (0 Bft) 100,00 %
01.03.2019 05:30 8,4 C 7,2 C 7,2 C 96 % 1008,9 hPa 0,0 l/m 0 min 0 min 0 W/m 3,2 km/h (1 Bft) 97,87 %
01.03.2019 05:32 8,4 C 7,2 C 7,2 C 96 % 1008,8 hPa 0,0 l/m 0 min 0 min 0 W/m 0,0 km/h (0 Bft) 100,00 %
01.03.2019 05:34 8,4 C 7,2 C 7,2 C 96 % 1008,8 hPa 0,0 l/m 0 min 0 min 0 W/m 3,2 km/h (1 Bft) 100,00 %
01.03.2019 05:36 8,4 C 7,2 C 7,2 C 96 % 1008,8 hPa 0,0 l/m 0 min 0 min 0 W/m 3,2 km/h (1 Bft) 97,87 %
01.03.2019 05:38 8,3 C 7,2 C 7,2 C 96 % 1008,8 hPa 0,0 l/m 0 min 0 min 0 W/m 3,2 km/h (1 Bft) 100,00 %
01.03.2019 05:40 8,4 C 7,2 C 7,2 C 96 % 1008,8 hPa 0,0 l/m 0 min 0 min 0 W/m 3,2 km/h (1 Bft) 100,00 %
01.03.2019 05:42 8,4 C 7,2 C 7,2 C 96 % 1008,8 hPa 0,0 l/m 0 min 0 min 0 W/m 3,2 km/h (1 Bft) 97,87 %
01.03.2019 05:44 8,4 C 7,2 C 6,7 C 96 % 1008,8 hPa 0,0 l/m 0 min 0 min 0 W/m 3,2 km/h (1 Bft) 100,00 %
01.03.2019 05:46 8,4 C 7,2 C 6,7 C 96 % 1008,7 hPa 0,0 l/m 0 min 0 min 0 W/m 3,2 km/h (1 Bft) 100,00 %
01.03.2019 05:48 8,4 C 7,2 C 6,7 C 96 % 1008,8 hPa 0,0 l/m 0 min 0 min 0 W/m 6,4 km/h (2 Bft) 100,00 %
01.03.2019 05:50 8,4 C 7,2 C 6,7 C 96 % 1008,7 hPa 0,0 l/m 0 min 0 min 0 W/m 3,2 km/h (1 Bft) 100,00 %
01.03.2019 05:52 8,3 C 7,2 C 6,7 C 96 % 1008,7 hPa 0,0 l/m 0 min 0 min 0 W/m 0,0 km/h (0 Bft) 100,00 %
01.03.2019 05:54 8,3 C 7,2 C 6,7 C 96 % 1008,7 hPa 0,0 l/m 0 min 0 min 0 W/m 3,2 km/h (1 Bft) 100,00 %
01.03.2019 05:56 8,3 C 7,2 C 6,7 C 96 % 1008,7 hPa 0,0 l/m 0 min 0 min 0 W/m 3,2 km/h (1 Bft) 100,00 %
01.03.2019 05:58 8,3 C 7,2 C 6,7 C 96 % 1008,8 hPa 0,0 l/m 0 min 0 min 0 W/m 3,2 km/h (1 Bft) 100,00 %
01.03.2019 06:00 8,3 C 7,2 C 6,7 C 96 % 1008,7 hPa 0,0 l/m 0 min 0 min 0 W/m 6,4 km/h (2 Bft) 100,00 %
01.03.2019 06:02 8,3 C 7,2 C 7,2 C 96 % 1008,7 hPa 0,0 l/m 0 min 0 min 0 W/m 6,4 km/h (2 Bft) 100,00 %
01.03.2019 06:04 8,3 C 7,2 C 7,2 C 96 % 1008,7 hPa 0,0 l/m 0 min 0 min 0 W/m 3,2 km/h (1 Bft) 100,00 %
01.03.2019 06:07 8,3 C 7,2 C 7,2 C 96 % 1008,7 hPa 0,0 l/m 0 min 0 min 0 W/m 3,2 km/h (1 Bft) 100,00 %
01.03.2019 06:08 8,3 C 7,2 C 7,2 C 96 % 1008,7 hPa 0,0 l/m 0 min 0 min 0 W/m 0,0 km/h (0 Bft) 100,00 %
01.03.2019 06:10 8,3 C 7,2 C 7,2 C 96 % 1008,7 hPa 0,0 l/m 0 min 0 min 0 W/m 0,0 km/h (0 Bft) 100,00 %
01.03.2019 06:12 8,3 C 7,2 C 7,2 C 96 % 1008,8 hPa 0,0 l/m 0 min 0 min 0 W/m 3,2 km/h (1 Bft) 100,00 %
01.03.2019 06:14 8,3 C 7,2 C 7,2 C 96 % 1008,7 hPa 0,0 l/m 0 min 0 min 0 W/m 0,0 km/h (0 Bft) 100,00 %
01.03.2019 06:16 8,3 C 7,2 C 7,2 C 96 % 1008,8 hPa 0,0 l/m 0 min 0 min 0 W/m 0,0 km/h (0 Bft) 100,00 %
01.03.2019 06:18 8,3 C 7,2 C 7,2 C 96 % 1008,8 hPa 0,0 l/m 0 min 0 min 0 W/m 0,0 km/h (0 Bft) 100,00 %
01.03.2019 06:20 8,3 C 7,2 C 7,2 C 97 % 1008,8 hPa 0,0 l/m 0 min 0 min 0 W/m 0,0 km/h (0 Bft) 100,00 %
01.03.2019 06:22 8,3 C 7,2 C 7,2 C 97 % 1008,8 hPa 0,0 l/m 0 min 0 min 0 W/m 0,0 km/h (0 Bft) 97,87 %
01.03.2019 06:24 8,3 C 7,2 C 7,2 C 97 % 1008,8 hPa 0,0 l/m 0 min 0 min 0 W/m 0,0 km/h (0 Bft) 97,87 %
01.03.2019 06:26 8,3 C 7,2 C 7,2 C 97 % 1008,9 hPa 0,0 l/m 0 min 0 min 0 W/m 0,0 km/h (0 Bft) 100,00 %
01.03.2019 06:28 8,3 C 7,2 C 7,2 C 97 % 1008,8 hPa 0,0 l/m 0 min 0 min 0 W/m 0,0 km/h (0 Bft) 97,87 %
01.03.2019 06:30 8,3 C 7,2 C 7,2 C 97 % 1008,9 hPa 0,0 l/m 0 min 0 min 0 W/m 0,0 km/h (0 Bft) 95,74 %
01.03.2019 06:32 8,3 C 7,2 C 7,2 C 97 % 1008,9 hPa 0,0 l/m 0 min 0 min 0 W/m 3,2 km/h (1 Bft) 95,65 %
01.03.2019 06:34 8,3 C 7,2 C 7,2 C 97 % 1009,0 hPa 0,0 l/m 0 min 0 min 0 W/m 9,7 km/h (2 Bft) 95,74 %
01.03.2019 06:36 8,3 C 7,2 C 7,2 C 97 % 1008,9 hPa 0,0 l/m 0 min 0 min 0 W/m 0,0 km/h (0 Bft) 89,36 %
01.03.2019 06:38 8,3 C 7,2 C 7,2 C 97 % 1009,0 hPa 0,0 l/m 0 min 0 min 0 W/m 3,2 km/h (1 Bft) 95,74 %
01.03.2019 06:40 8,3 C 7,2 C 7,2 C 97 % 1009,0 hPa 0,0 l/m 0 min 0 min 0 W/m 3,2 km/h (1 Bft) 95,74 %
01.03.2019 06:42 8,3 C 7,2 C 7,2 C 97 % 1009,0 hPa 0,0 l/m 0 min 0 min 0 W/m 6,4 km/h (2 Bft) 93,62 %
01.03.2019 06:44 8,3 C 7,2 C 7,2 C 97 % 1009,0 hPa 0,0 l/m 0 min 0 min 0 W/m 6,4 km/h (2 Bft) 95,65 %
01.03.2019 06:46 8,3 C 7,2 C 7,2 C 97 % 1009,1 hPa 0,0 l/m 0 min 0 min 0 W/m 3,2 km/h (1 Bft) 93,62 %
01.03.2019 06:48 8,3 C 7,2 C 7,2 C 97 % 1009,1 hPa 0,0 l/m 0 min 0 min 0 W/m 3,2 km/h (1 Bft) 95,74 %
01.03.2019 06:50 8,3 C 7,2 C 7,2 C 97 % 1009,1 hPa 0,0 l/m 0 min 0 min 0 W/m 3,2 km/h (1 Bft) 97,87 %
01.03.2019 06:52 8,3 C 7,2 C 7,2 C 97 % 1009,1 hPa 0,0 l/m 0 min 0 min 0 W/m 3,2 km/h (1 Bft) 93,62 %
01.03.2019 06:54 8,3 C 7,2 C 7,2 C 97 % 1009,1 hPa 0,0 l/m 0 min 0 min 0 W/m 3,2 km/h (1 Bft) 95,74 %
01.03.2019 06:56 8,3 C 7,2 C 7,2 C 97 % 1009,1 hPa 0,0 l/m 0 min 0 min 0 W/m 3,2 km/h (1 Bft) 95,65 %
01.03.2019 06:58 8,3 C 7,2 C 7,2 C 97 % 1009,1 hPa 0,0 l/m 0 min 0 min 0 W/m 9,7 km/h (2 Bft) 91,49 %
01.03.2019 07:00 8,3 C 7,2 C 7,2 C 97 % 1009,1 hPa 0,0 l/m 0 min 0 min 0 W/m 3,2 km/h (1 Bft) 95,74 %
01.03.2019 07:02 8,3 C 7,2 C 7,2 C 97 % 1009,1 hPa 0,0 l/m 0 min 0 min 0 W/m 9,7 km/h (2 Bft) 95,74 %
01.03.2019 07:04 8,3 C 7,2 C 7,2 C 97 % 1009,2 hPa 0,0 l/m 0 min 0 min 0 W/m 12,9 km/h (3 Bft) 95,74 %
01.03.2019 07:06 8,3 C 7,2 C 7,2 C 97 % 1009,2 hPa 0,0 l/m 0 min 0 min 0 W/m 6,4 km/h (2 Bft) 89,13 %
01.03.2019 07:08 8,3 C 7,2 C 6,7 C 97 % 1009,2 hPa 0,0 l/m 0 min 0 min 0 W/m 6,4 km/h (2 Bft) 93,62 %
01.03.2019 07:10 8,3 C 7,2 C 6,7 C 97 % 1009,2 hPa 0,0 l/m 0 min 0 min 0 W/m 3,2 km/h (1 Bft) 93,62 %
01.03.2019 07:12 8,3 C 7,2 C 6,7 C 97 % 1009,2 hPa 0,0 l/m 0 min 0 min 0 W/m 12,9 km/h (3 Bft) 93,62 %
01.03.2019 07:14 8,3 C 7,2 C 6,7 C 97 % 1009,2 hPa 0,0 l/m 0 min 0 min 0 W/m 9,7 km/h (2 Bft) 89,36 %
01.03.2019 07:16 8,3 C 7,2 C 6,7 C 97 % 1009,3 hPa 0,0 l/m 0 min 0 min 0 W/m 6,4 km/h (2 Bft) 95,74 %
01.03.2019 07:18 8,3 C 7,2 C 6,7 C 97 % 1009,3 hPa 0,0 l/m 0 min 0 min 0 W/m 6,4 km/h (2 Bft) 97,87 %
01.03.2019 07:20 8,3 C 7,2 C 6,7 C 97 % 1009,3 hPa 0,0 l/m 0 min 0 min 0 W/m 6,4 km/h (2 Bft) 97,83 %
01.03.2019 07:22 8,2 C 7,2 C 6,7 C 97 % 1009,3 hPa 0,0 l/m 0 min 0 min 0 W/m 6,4 km/h (2 Bft) 95,74 %
01.03.2019 07:24 8,2 C 7,2 C 6,7 C 97 % 1009,4 hPa 0,0 l/m 0 min 0 min 0 W/m 6,4 km/h (2 Bft) 93,62 %
01.03.2019 07:26 8,2 C 7,2 C 6,7 C 97 % 1009,5 hPa 0,0 l/m 0 min 0 min 0 W/m 6,4 km/h (2 Bft) 93,62 %
01.03.2019 07:28 8,2 C 7,2 C 6,7 C 97 % 1009,5 hPa 0,0 l/m 0 min 0 min 0 W/m 6,4 km/h (2 Bft) 95,74 %
01.03.2019 07:30 8,2 C 7,2 C 6,7 C 97 % 1009,5 hPa 0,0 l/m 0 min 0 min 0 W/m 6,4 km/h (2 Bft) 97,83 %
01.03.2019 07:32 8,2 C 7,2 C 6,7 C 97 % 1009,5 hPa 0,0 l/m 0 min 0 min 0 W/m 6,4 km/h (2 Bft) 97,87 %
01.03.2019 07:34 8,2 C 7,2 C 6,7 C 97 % 1009,5 hPa 0,0 l/m 0 min 0 min 0 W/m 3,2 km/h (1 Bft) 95,74 %
01.03.2019 07:36 8,2 C 7,2 C 6,7 C 97 % 1009,5 hPa 0,0 l/m 0 min 0 min 0 W/m 6,4 km/h (2 Bft) 95,74 %
01.03.2019 07:38 8,2 C 7,2 C 6,7 C 97 % 1009,5 hPa 0,0 l/m 0 min 0 min 0 W/m 0,0 km/h (0 Bft) 97,92 %
01.03.2019 07:40 8,2 C 7,2 C 6,7 C 97 % 1009,6 hPa 0,0 l/m 0 min 0 min 0 W/m 6,4 km/h (2 Bft) 94,29 %
01.03.2019 07:42 8,2 C 7,2 C 6,7 C 97 % 1009,6 hPa 0,0 l/m 0 min 0 min 1 W/m 0,0 km/h (0 Bft) 93,62 %
01.03.2019 07:44 8,2 C 7,2 C 6,7 C 97 % 1009,6 hPa 0,0 l/m 0 min 0 min 6 W/m 6,4 km/h (2 Bft) 93,62 %
01.03.2019 07:46 8,2 C 7,2 C 6,7 C 97 % 1009,6 hPa 0,0 l/m 0 min 0 min 7 W/m 6,4 km/h (2 Bft) 95,83 %
01.03.2019 07:48 8,2 C 7,2 C 6,7 C 97 % 1009,7 hPa 0,0 l/m 0 min 0 min 7 W/m 3,2 km/h (1 Bft) 97,87 %
01.03.2019 07:50 8,2 C 7,2 C 6,7 C 97 % 1009,7 hPa 0,0 l/m 0 min 0 min 7 W/m 9,7 km/h (2 Bft) 97,83 %
01.03.2019 07:52 8,1 C 7,2 C 6,7 C 97 % 1009,7 hPa 0,0 l/m 0 min 0 min 7 W/m 6,4 km/h (2 Bft) 97,87 %
01.03.2019 07:54 8,2 C 7,2 C 6,7 C 97 % 1009,7 hPa 0,0 l/m 0 min 0 min 6 W/m 6,4 km/h (2 Bft) 97,87 %
01.03.2019 07:56 8,1 C 7,2 C 6,7 C 97 % 1009,7 hPa 0,0 l/m 0 min 0 min 5 W/m 3,2 km/h (1 Bft) 97,87 %
01.03.2019 07:58 8,1 C 7,2 C 6,7 C 97 % 1009,7 hPa 0,0 l/m 0 min 0 min 5 W/m 12,9 km/h (3 Bft) 97,87 %
01.03.2019 08:00 8,1 C 7,2 C 6,7 C 97 % 1009,7 hPa 0,0 l/m 0 min 0 min 5 W/m 6,4 km/h (2 Bft) 97,87 %
01.03.2019 08:02 8,1 C 7,2 C 6,7 C 97 % 1009,7 hPa 0,0 l/m 0 min 0 min 6 W/m 3,2 km/h (1 Bft) 97,83 %
01.03.2019 08:04 8,1 C 7,2 C 6,7 C 97 % 1009,8 hPa 0,0 l/m 0 min 0 min 9 W/m 3,2 km/h (1 Bft) 97,87 %
01.03.2019 08:06 8,1 C 7,2 C 6,7 C 97 % 1009,8 hPa 0,0 l/m 0 min 0 min 7 W/m 6,4 km/h (2 Bft) 97,87 %
01.03.2019 08:08 8,1 C 7,2 C 6,7 C 97 % 1009,8 hPa 0,0 l/m 0 min 0 min 5 W/m 6,4 km/h (2 Bft) 97,87 %
01.03.2019 08:10 8,1 C 7,2 C 6,7 C 97 % 1009,9 hPa 0,0 l/m 0 min 0 min 5 W/m 0,0 km/h (0 Bft) 97,87 %
01.03.2019 08:12 8,1 C 7,2 C 6,7 C 97 % 1009,9 hPa 0,0 l/m 0 min 0 min 5 W/m 3,2 km/h (1 Bft) 97,87 %
01.03.2019 08:14 8,1 C 7,2 C 6,7 C 97 % 1009,9 hPa 0,0 l/m 0 min 0 min 5 W/m 6,4 km/h (2 Bft) 100,00 %
01.03.2019 08:16 8,1 C 7,2 C 6,7 C 97 % 1009,9 hPa 0,0 l/m 0 min 0 min 6 W/m 6,4 km/h (2 Bft) 100,00 %
01.03.2019 08:18 8,1 C 7,2 C 6,7 C 97 % 1009,9 hPa 0,0 l/m 0 min 0 min 9 W/m 3,2 km/h (1 Bft) 100,00 %
01.03.2019 08:20 8,1 C 7,2 C 6,7 C 97 % 1009,9 hPa 0,0 l/m 0 min 0 min 10 W/m 6,4 km/h (2 Bft) 100,00 %
01.03.2019 08:22 8,1 C 7,2 C 6,7 C 97 % 1009,9 hPa 0,0 l/m 0 min 0 min 10 W/m 9,7 km/h (2 Bft) 100,00 %
01.03.2019 08:24 8,1 C 7,2 C 6,7 C 97 % 1010,0 hPa 0,0 l/m 0 min 0 min 14 W/m 6,4 km/h (2 Bft) 100,00 %
01.03.2019 08:26 8,1 C 7,2 C 6,7 C 97 % 1010,0 hPa 0,0 l/m 0 min 0 min 19 W/m 3,2 km/h (1 Bft) 100,00 %
01.03.2019 08:28 8,1 C 7,2 C 6,7 C 97 % 1010,0 hPa 0,0 l/m 0 min 0 min 24 W/m 3,2 km/h (1 Bft) 100,00 %
01.03.2019 08:30 8,1 C 7,2 C 6,7 C 97 % 1009,9 hPa 0,0 l/m 0 min 0 min 29 W/m 9,7 km/h (2 Bft) 100,00 %
01.03.2019 08:32 8,1 C 7,2 C 6,7 C 97 % 1010,0 hPa 0,0 l/m 0 min 0 min 25 W/m 3,2 km/h (1 Bft) 97,83 %
01.03.2019 08:34 8,1 C 7,2 C 6,7 C 97 % 1010,0 hPa 0,0 l/m 0 min 0 min 14 W/m 6,4 km/h (2 Bft) 100,00 %
01.03.2019 08:36 8,1 C 7,2 C 6,7 C 97 % 1010,1 hPa 0,0 l/m 0 min 0 min 11 W/m 6,4 km/h (2 Bft) 100,00 %
01.03.2019 08:38 8,1 C 7,2 C 6,7 C 97 % 1010,1 hPa 0,0 l/m 0 min 0 min 11 W/m 12,9 km/h (3 Bft) 97,92 %
01.03.2019 08:40 8,0 C 7,2 C 6,7 C 97 % 1010,1 hPa 0,0 l/m 0 min 0 min 11 W/m 19,3 km/h (3 Bft) 100,00 %
01.03.2019 08:42 7,9 C 7,2 C 6,7 C 97 % 1010,2 hPa 0,0 l/m 0 min 0 min 9 W/m 12,9 km/h (3 Bft) 100,00 %
01.03.2019 08:44 7,9 C 6,7 C 6,7 C 97 % 1010,3 hPa 0,0 l/m 0 min 0 min 7 W/m 12,9 km/h (3 Bft) 100,00 %
01.03.2019 08:46 7,8 C 6,7 C 6,7 C 97 % 1010,3 hPa 0,0 l/m 0 min 0 min 10 W/m 9,7 km/h (2 Bft) 97,87 %
01.03.2019 08:48 7,8 C 6,7 C 6,7 C 97 % 1010,3 hPa 0,0 l/m 0 min 0 min 12 W/m 16,1 km/h (3 Bft) 100,00 %
01.03.2019 08:50 7,7 C 6,7 C 6,1 C 97 % 1010,4 hPa 0,0 l/m 0 min 0 min 12 W/m 16,1 km/h (3 Bft) 100,00 %
01.03.2019 08:52 7,7 C 6,7 C 6,1 C 97 % 1010,5 hPa 0,0 l/m 0 min 0 min 11 W/m 9,7 km/h (2 Bft) 97,87 %
01.03.2019 08:54 7,7 C 6,7 C 6,1 C 97 % 1010,4 hPa 0,0 l/m 0 min 0 min 11 W/m 12,9 km/h (3 Bft) 100,00 %
01.03.2019 08:56 7,6 C 6,7 C 6,1 C 97 % 1010,5 hPa 0,0 l/m 0 min 0 min 11 W/m 16,1 km/h (3 Bft) 100,00 %
01.03.2019 08:58 7,6 C 6,7 C 6,1 C 97 % 1010,5 hPa 0,0 l/m 0 min 0 min 12 W/m 12,9 km/h (3 Bft) 100,00 %
01.03.2019 09:00 7,6 C 6,7 C 6,1 C 97 % 1010,5 hPa 0,0 l/m 0 min 0 min 12 W/m 16,1 km/h (3 Bft) 100,00 %
01.03.2019 09:02 7,5 C 6,7 C 6,1 C 97 % 1010,5 hPa 0,0 l/m 0 min 0 min 14 W/m 9,7 km/h (2 Bft) 100,00 %
01.03.2019 09:04 7,5 C 6,7 C 6,1 C 97 % 1010,6 hPa 0,0 l/m 0 min 0 min 13 W/m 12,9 km/h (3 Bft) 97,87 %
01.03.2019 09:06 7,5 C 6,7 C 6,1 C 97 % 1010,6 hPa 0,0 l/m 0 min 0 min 12 W/m 9,7 km/h (2 Bft) 100,00 %
01.03.2019 09:08 7,4 C 6,7 C 6,1 C 97 % 1010,6 hPa 0,0 l/m 0 min 0 min 14 W/m 9,7 km/h (2 Bft) 97,87 %
01.03.2019 09:10 7,4 C 6,7 C 6,1 C 97 % 1010,7 hPa 0,0 l/m 0 min 0 min 16 W/m 12,9 km/h (3 Bft) 97,87 %
01.03.2019 09:12 7,4 C 6,7 C 6,1 C 97 % 1010,8 hPa 0,0 l/m 0 min 0 min 14 W/m 16,1 km/h (3 Bft) 97,83 %
01.03.2019 09:14 7,4 C 6,7 C 6,1 C 97 % 1010,8 hPa 0,0 l/m 0 min 0 min 15 W/m 9,7 km/h (2 Bft) 97,87 %
01.03.2019 09:16 7,4 C 6,7 C 6,1 C 97 % 1010,8 hPa 0,0 l/m 0 min 0 min 20 W/m 12,9 km/h (3 Bft) 97,87 %
01.03.2019 09:18 7,4 C 6,7 C 6,1 C 97 % 1010,8 hPa 0,0 l/m 0 min 0 min 20 W/m 19,3 km/h (3 Bft) 95,74 %
01.03.2019 09:20 7,3 C 6,7 C 6,1 C 97 % 1010,7 hPa 0,0 l/m 0 min 0 min 19 W/m 16,1 km/h (3 Bft) 93,62 %
01.03.2019 09:22 7,3 C 6,7 C 6,1 C 97 % 1010,8 hPa 0,0 l/m 0 min 0 min 19 W/m 9,7 km/h (2 Bft) 95,65 %
01.03.2019 09:24 7,3 C 6,7 C 6,1 C 97 % 1010,9 hPa 0,0 l/m 0 min 0 min 22 W/m 19,3 km/h (3 Bft) 95,74 %
01.03.2019 09:26 7,3 C 6,7 C 6,1 C 97 % 1011,0 hPa 0,0 l/m 0 min 0 min 24 W/m 22,5 km/h (4 Bft) 97,87 %
01.03.2019 09:28 7,3 C 6,7 C 6,1 C 97 % 1010,9 hPa 0,0 l/m 0 min 0 min 18 W/m 12,9 km/h (3 Bft) 97,87 %
01.03.2019 09:30 7,3 C 6,7 C 6,1 C 97 % 1011,1 hPa 0,0 l/m 0 min 0 min 12 W/m 16,1 km/h (3 Bft) 95,74 %
01.03.2019 09:32 7,2 C 6,7 C 6,1 C 97 % 1011,0 hPa 0,0 l/m 0 min 0 min 13 W/m 12,9 km/h (3 Bft) 97,87 %
01.03.2019 09:34 7,2 C 6,7 C 6,1 C 97 % 1011,1 hPa 0,0 l/m 0 min 0 min 15 W/m 12,9 km/h (3 Bft) 97,83 %
01.03.2019 09:36 7,2 C 6,7 C 6,1 C 97 % 1011,2 hPa 0,0 l/m 0 min 0 min 16 W/m 16,1 km/h (3 Bft) 97,87 %
01.03.2019 09:38 7,2 C 6,7 C 6,1 C 97 % 1011,2 hPa 0,0 l/m 0 min 0 min 15 W/m 22,5 km/h (4 Bft) 95,74 %
01.03.2019 09:40 7,2 C 6,1 C 6,1 C 97 % 1011,2 hPa 0,0 l/m 0 min 0 min 12 W/m 9,7 km/h (2 Bft) 97,87 %
01.03.2019 09:42 7,2 C 6,1 C 6,1 C 97 % 1011,3 hPa 0,0 l/m 0 min 0 min 10 W/m 12,9 km/h (3 Bft) 97,87 %
01.03.2019 09:44 7,2 C 6,1 C 6,1 C 97 % 1011,2 hPa 0,0 l/m 0 min 0 min 11 W/m 12,9 km/h (3 Bft) 97,87 %
01.03.2019 09:46 7,1 C 6,1 C 6,1 C 97 % 1011,3 hPa 0,0 l/m 0 min 0 min 11 W/m 16,1 km/h (3 Bft) 97,83 %
01.03.2019 09:48 7,1 C 6,1 C 6,1 C 97 % 1011,3 hPa 0,0 l/m 0 min 0 min 9 W/m 12,9 km/h (3 Bft) 97,87 %
01.03.2019 09:50 7,1 C 6,1 C 6,1 C 97 % 1011,3 hPa 0,0 l/m 0 min 0 min 9 W/m 9,7 km/h (2 Bft) 97,87 %
01.03.2019 09:52 7,1 C 6,1 C 6,1 C 97 % 1011,3 hPa 0,0 l/m 0 min 0 min 12 W/m 12,9 km/h (3 Bft) 97,87 %
01.03.2019 09:54 7,1 C 6,1 C 6,1 C 97 % 1011,4 hPa 0,0 l/m 0 min 0 min 12 W/m 9,7 km/h (2 Bft) 95,74 %
01.03.2019 09:56 7,1 C 6,1 C 6,1 C 97 % 1011,3 hPa 0,0 l/m 0 min 0 min 12 W/m 6,4 km/h (2 Bft) 97,87 %
01.03.2019 09:58 7,1 C 6,1 C 5,6 C 97 % 1011,3 hPa 0,0 l/m 0 min 0 min 11 W/m 16,1 km/h (3 Bft) 97,83 %
01.03.2019 10:00 7,1 C 6,1 C 5,6 C 97 % 1011,4 hPa 0,0 l/m 0 min 0 min 11 W/m 12,9 km/h (3 Bft) 95,74 %
01.03.2019 10:02 7,1 C 6,1 C 5,6 C 97 % 1011,5 hPa 0,0 l/m 0 min 0 min 12 W/m 12,9 km/h (3 Bft) 95,74 %
01.03.2019 10:04 7,1 C 6,1 C 5,6 C 97 % 1011,5 hPa 0,0 l/m 0 min 0 min 17 W/m 9,7 km/h (2 Bft) 97,87 %
01.03.2019 10:06 7,1 C 6,1 C 5,6 C 97 % 1011,6 hPa 0,0 l/m 0 min 0 min 18 W/m 9,7 km/h (2 Bft) 93,62 %
01.03.2019 10:08 7,1 C 6,1 C 5,6 C 97 % 1011,6 hPa 0,0 l/m 0 min 0 min 19 W/m 9,7 km/h (2 Bft) 95,74 %
01.03.2019 10:10 7,0 C 6,1 C 5,6 C 97 % 1011,6 hPa 0,0 l/m 0 min 0 min 20 W/m 9,7 km/h (2 Bft) 95,65 %
01.03.2019 10:12 7,0 C 6,1 C 5,6 C 97 % 1011,7 hPa 0,0 l/m 0 min 0 min 24 W/m 19,3 km/h (3 Bft) 97,87 %
01.03.2019 10:14 7,0 C 6,1 C 6,1 C 97 % 1011,6 hPa 0,0 l/m 0 min 0 min 28 W/m 12,9 km/h (3 Bft) 95,74 %
01.03.2019 10:16 7,0 C 6,1 C 6,1 C 97 % 1011,7 hPa 0,0 l/m 0 min 0 min 32 W/m 16,1 km/h (3 Bft) 97,87 %
01.03.2019 10:18 7,0 C 6,1 C 6,1 C 97 % 1011,7 hPa 0,0 l/m 0 min 0 min 30 W/m 12,9 km/h (3 Bft) 95,74 %
01.03.2019 10:20 7,0 C 6,1 C 6,1 C 97 % 1011,8 hPa 0,0 l/m 0 min 0 min 31 W/m 9,7 km/h (2 Bft) 95,65 %
01.03.2019 10:22 7,0 C 6,7 C 6,1 C 97 % 1011,8 hPa 0,0 l/m 0 min 0 min 31 W/m 9,7 km/h (2 Bft) 95,74 %
01.03.2019 10:24 7,0 C 6,7 C 6,1 C 97 % 1011,8 hPa 0,0 l/m 0 min 0 min 31 W/m 12,9 km/h (3 Bft) 95,74 %
01.03.2019 10:26 7,0 C 6,7 C 6,1 C 97 % 1011,7 hPa 0,0 l/m 0 min 0 min 32 W/m 16,1 km/h (3 Bft) 95,74 %
01.03.2019 10:28 7,0 C 6,7 C 6,1 C 97 % 1011,8 hPa 0,0 l/m 0 min 0 min 33 W/m 12,9 km/h (3 Bft) 93,62 %
01.03.2019 10:30 7,0 C 6,7 C 6,1 C 97 % 1011,7 hPa 0,0 l/m 0 min 0 min 34 W/m 9,7 km/h (2 Bft) 95,74 %
01.03.2019 10:32 7,0 C 6,7 C 6,1 C 97 % 1011,9 hPa 0,0 l/m 0 min 0 min 28 W/m 9,7 km/h (2 Bft) 93,48 %
01.03.2019 10:34 7,0 C 6,7 C 6,1 C 97 % 1011,8 hPa 0,0 l/m 0 min 0 min 31 W/m 6,4 km/h (2 Bft) 95,74 %
01.03.2019 10:36 7,0 C 6,7 C 6,1 C 97 % 1012,0 hPa 0,0 l/m 0 min 0 min 37 W/m 16,1 km/h (3 Bft) 95,74 %
01.03.2019 10:38 7,1 C 6,7 C 6,1 C 97 % 1012,0 hPa 0,0 l/m 0 min 0 min 40 W/m 12,9 km/h (3 Bft) 93,62 %
01.03.2019 10:40 7,0 C 6,7 C 6,1 C 97 % 1011,9 hPa 0,0 l/m 0 min 0 min 41 W/m 9,7 km/h (2 Bft) 95,74 %
01.03.2019 10:42 7,1 C 6,7 C 6,1 C 97 % 1011,9 hPa 0,0 l/m 0 min 0 min 40 W/m 9,7 km/h (2 Bft) 95,74 %
01.03.2019 10:44 7,1 C 6,7 C 6,1 C 97 % 1012,0 hPa 0,0 l/m 0 min 0 min 38 W/m 9,7 km/h (2 Bft) 95,65 %
01.03.2019 10:46 7,1 C 6,7 C 6,1 C 97 % 1012,1 hPa 0,0 l/m 0 min 0 min 36 W/m 9,7 km/h (2 Bft) 95,74 %
01.03.2019 10:48 7,1 C 6,7 C 6,1 C 97 % 1012,0 hPa 0,0 l/m 0 min 0 min 26 W/m 12,9 km/h (3 Bft) 95,74 %
01.03.2019 10:50 7,1 C 6,7 C 6,1 C 97 % 1012,1 hPa 0,0 l/m 0 min 0 min 24 W/m 16,1 km/h (3 Bft) 93,62 %
01.03.2019 10:52 7,1 C 6,7 C 6,1 C 97 % 1012,2 hPa 0,0 l/m 0 min 0 min 21 W/m 12,9 km/h (3 Bft) 93,62 %
01.03.2019 10:54 7,1 C 6,7 C 6,1 C 97 % 1012,2 hPa 0,0 l/m 0 min 0 min 16 W/m 6,4 km/h (2 Bft) 93,62 %
01.03.2019 10:56 7,1 C 6,7 C 6,1 C 97 % 1012,2 hPa 0,0 l/m 0 min 0 min 14 W/m 9,7 km/h (2 Bft) 95,65 %
01.03.2019 10:58 7,1 C 6,7 C 6,1 C 97 % 1012,1 hPa 0,0 l/m 0 min 0 min 12 W/m 3,2 km/h (1 Bft) 93,62 %
01.03.2019 11:00 7,1 C 6,1 C 6,1 C 97 % 1012,2 hPa 0,0 l/m 0 min 0 min 13 W/m 6,4 km/h (2 Bft) 95,74 %
01.03.2019 11:02 7,1 C 6,1 C 6,1 C 97 % 1012,2 hPa 0,0 l/m 0 min 0 min 19 W/m 12,9 km/h (3 Bft) 95,74 %
01.03.2019 11:04 7,1 C 6,1 C 6,1 C 97 % 1012,3 hPa 0,0 l/m 0 min 0 min 27 W/m 16,1 km/h (3 Bft) 91,49 %
01.03.2019 11:06 7,1 C 6,1 C 6,1 C 97 % 1012,3 hPa 0,0 l/m 0 min 0 min 37 W/m 19,3 km/h (3 Bft) 97,87 %
01.03.2019 11:08 7,1 C 6,7 C 6,1 C 97 % 1012,4 hPa 0,0 l/m 0 min 0 min 61 W/m 16,1 km/h (3 Bft) 97,83 %
01.03.2019 11:10 7,1 C 6,7 C 6,1 C 97 % 1012,3 hPa 0,0 l/m 0 min 0 min 79 W/m 12,9 km/h (3 Bft) 100,00 %
01.03.2019 11:12 7,1 C 6,7 C 6,1 C 97 % 1012,3 hPa 0,0 l/m 0 min 0 min 99 W/m 6,4 km/h (2 Bft) 97,87 %
01.03.2019 11:14 7,1 C 6,7 C 6,7 C 97 % 1012,4 hPa 0,0 l/m 0 min 0 min 110 W/m 12,9 km/h (3 Bft) 97,87 %
01.03.2019 11:16 7,1 C 7,2 C 6,7 C 97 % 1012,5 hPa 0,0 l/m 0 min 0 min 108 W/m 12,9 km/h (3 Bft) 100,00 %
01.03.2019 11:18 7,1 C 7,2 C 6,7 C 97 % 1012,5 hPa 0,0 l/m 0 min 0 min 98 W/m 9,7 km/h (2 Bft) 95,74 %
01.03.2019 11:20 7,2 C 7,2 C 6,7 C 97 % 1012,6 hPa 0,0 l/m 0 min 0 min 75 W/m 6,4 km/h (2 Bft) 100,00 %
01.03.2019 11:22 7,2 C 6,7 C 6,1 C 97 % 1012,5 hPa 0,0 l/m 0 min 0 min 54 W/m 6,4 km/h (2 Bft) 93,62 %
01.03.2019 11:24 7,2 C 6,7 C 6,1 C 97 % 1012,6 hPa 0,0 l/m 0 min 0 min 44 W/m 12,9 km/h (3 Bft) 100,00 %
01.03.2019 11:26 7,2 C 6,7 C 6,1 C 97 % 1012,6 hPa 0,0 l/m 0 min 0 min 38 W/m 6,4 km/h (2 Bft) 95,74 %
01.03.2019 11:28 7,2 C 6,7 C 6,1 C 97 % 1012,6 hPa 0,0 l/m 0 min 0 min 33 W/m 12,9 km/h (3 Bft) 100,00 %
01.03.2019 11:30 7,2 C 6,7 C 6,1 C 97 % 1012,6 hPa 0,0 l/m 0 min 0 min 32 W/m 12,9 km/h (3 Bft) 97,87 %
01.03.2019 11:32 7,2 C 6,7 C 6,1 C 97 % 1012,6 hPa 0,0 l/m 0 min 0 min 27 W/m 9,7 km/h (2 Bft) 100,00 %
01.03.2019 11:34 7,2 C 6,7 C 6,1 C 97 % 1012,6 hPa 0,0 l/m 0 min 0 min 26 W/m 9,7 km/h (2 Bft) 97,87 %
01.03.2019 11:36 7,2 C 6,7 C 6,1 C 97 % 1012,7 hPa 0,0 l/m 0 min 0 min 26 W/m 12,9 km/h (3 Bft) 100,00 %
01.03.2019 11:38 7,2 C 6,7 C 6,1 C 97 % 1012,7 hPa 0,0 l/m 0 min 0 min 27 W/m 12,9 km/h (3 Bft) 100,00 %
01.03.2019 11:40 7,1 C 6,7 C 6,1 C 97 % 1012,8 hPa 0,0 l/m 0 min 0 min 26 W/m 9,7 km/h (2 Bft) 100,00 %
01.03.2019 11:42 7,1 C 6,7 C 6,1 C 97 % 1012,8 hPa 0,0 l/m 0 min 0 min 23 W/m 12,9 km/h (3 Bft) 100,00 %
01.03.2019 11:44 7,1 C 6,7 C 6,1 C 97 % 1012,8 hPa 0,0 l/m 0 min 0 min 23 W/m 12,9 km/h (3 Bft) 97,87 %
01.03.2019 11:46 7,1 C 6,7 C 6,1 C 97 % 1012,9 hPa 0,0 l/m 0 min 0 min 25 W/m 12,9 km/h (3 Bft) 100,00 %
01.03.2019 11:48 7,1 C 6,7 C 6,1 C 97 % 1012,9 hPa 0,0 l/m 0 min 0 min 24 W/m 12,9 km/h (3 Bft) 97,87 %
01.03.2019 11:50 7,1 C 6,7 C 6,1 C 97 % 1012,9 hPa 0,0 l/m 0 min 0 min 25 W/m 12,9 km/h (3 Bft) 97,83 %
01.03.2019 11:52 7,1 C 6,7 C 6,1 C 97 % 1013,0 hPa 0,0 l/m 0 min 0 min 28 W/m 16,1 km/h (3 Bft) 97,87 %
01.03.2019 11:54 7,1 C 6,7 C 6,1 C 97 % 1013,0 hPa 0,0 l/m 0 min 0 min 30 W/m 9,7 km/h (2 Bft) 97,87 %
01.03.2019 11:56 7,1 C 6,7 C 6,1 C 97 % 1012,9 hPa 0,0 l/m 0 min 0 min 32 W/m 19,3 km/h (3 Bft) 95,74 %
01.03.2019 11:58 7,1 C 6,7 C 6,1 C 97 % 1013,0 hPa 0,0 l/m 0 min 0 min 33 W/m 6,4 km/h (2 Bft) 97,87 %
01.03.2019 12:00 7,1 C 6,7 C 6,1 C 97 % 1013,0 hPa 0,0 l/m 0 min 0 min 34 W/m 9,7 km/h (2 Bft) 95,65 %
01.03.2019 12:02 7,1 C 6,7 C 6,1 C 97 % 1013,0 hPa 0,0 l/m 0 min 2 min 41 W/m 6,4 km/h (2 Bft) 95,74 %
01.03.2019 12:04 7,1 C 6,7 C 6,1 C 97 % 1012,9 hPa 0,0 l/m 0 min 2 min 46 W/m 6,4 km/h (2 Bft) 97,87 %
01.03.2019 12:08 7,2 C 6,7 C 6,1 C 97 % 1013,0 hPa 0,0 l/m 0 min 4 min 49 W/m 16,1 km/h (3 Bft) 97,87 %
01.03.2019 12:10 7,2 C 6,7 C 6,1 C 97 % 1013,1 hPa 0,0 l/m 0 min 0 min 56 W/m 12,9 km/h (3 Bft) 97,87 %
01.03.2019 12:12 7,2 C 6,7 C 6,1 C 97 % 1013,0 hPa 0,0 l/m 0 min 0 min 62 W/m 3,2 km/h (1 Bft) 95,65 %
01.03.2019 12:14 7,2 C 6,7 C 6,1 C 97 % 1012,9 hPa 0,0 l/m 0 min 0 min 72 W/m 3,2 km/h (1 Bft) 95,74 %
01.03.2019 12:16 7,2 C 6,7 C 6,1 C 97 % 1012,9 hPa 0,0 l/m 0 min 0 min 77 W/m 6,4 km/h (2 Bft) 97,87 %
01.03.2019 12:18 7,2 C 6,7 C 6,1 C 97 % 1012,9 hPa 0,0 l/m 0 min 0 min 69 W/m 9,7 km/h (2 Bft) 97,87 %
01.03.2019 12:20 7,2 C 6,7 C 6,7 C 97 % 1013,0 hPa 0,0 l/m 0 min 0 min 60 W/m 6,4 km/h (2 Bft) 97,87 %
01.03.2019 12:22 7,3 C 6,7 C 6,7 C 97 % 1013,0 hPa 0,0 l/m 0 min 0 min 43 W/m 6,4 km/h (2 Bft) 97,87 %
01.03.2019 12:24 7,3 C 6,7 C 6,1 C 97 % 1013,1 hPa 0,0 l/m 0 min 0 min 41 W/m 12,9 km/h (3 Bft) 97,83 %
01.03.2019 12:26 7,3 C 6,7 C 6,1 C 97 % 1013,2 hPa 0,0 l/m 0 min 2 min 37 W/m 6,4 km/h (2 Bft) 95,74 %
01.03.2019 12:28 7,3 C 6,7 C 6,1 C 97 % 1013,2 hPa 0,0 l/m 0 min 0 min 37 W/m 12,9 km/h (3 Bft) 95,74 %
01.03.2019 12:30 7,3 C 6,7 C 6,7 C 97 % 1013,2 hPa 0,0 l/m 0 min 0 min 38 W/m 12,9 km/h (3 Bft) 95,74 %
01.03.2019 12:32 7,3 C 7,2 C 6,7 C 97 % 1013,2 hPa 0,0 l/m 0 min 0 min 42 W/m 6,4 km/h (2 Bft) 100,00 %
01.03.2019 12:34 7,4 C 7,2 C 6,7 C 97 % 1013,3 hPa 0,0 l/m 0 min 0 min 43 W/m 12,9 km/h (3 Bft) 97,87 %
01.03.2019 12:36 7,4 C 7,2 C 6,7 C 98 % 1013,2 hPa 0,0 l/m 0 min 0 min 43 W/m 12,9 km/h (3 Bft) 97,83 %
01.03.2019 12:38 7,4 C 7,2 C 6,7 C 98 % 1013,2 hPa 0,0 l/m 0 min 0 min 45 W/m 9,7 km/h (2 Bft) 97,92 %
01.03.2019 12:40 7,4 C 7,2 C 6,7 C 98 % 1013,2 hPa 0,0 l/m 0 min 0 min 38 W/m 9,7 km/h (2 Bft) 100,00 %
01.03.2019 12:42 7,4 C 6,7 C 6,1 C 98 % 1013,2 hPa 0,0 l/m 0 min 0 min 36 W/m 16,1 km/h (3 Bft) 100,00 %
01.03.2019 12:44 7,4 C 6,7 C 6,7 C 98 % 1013,2 hPa 0,0 l/m 0 min 0 min 38 W/m 12,9 km/h (3 Bft) 100,00 %
01.03.2019 12:46 7,4 C 7,2 C 6,7 C 98 % 1013,2 hPa 0,0 l/m 0 min 0 min 39 W/m 9,7 km/h (2 Bft) 97,83 %
01.03.2019 12:48 7,5 C 7,2 C 6,7 C 98 % 1013,3 hPa 0,0 l/m 0 min 2 min 38 W/m 16,1 km/h (3 Bft) 95,74 %
01.03.2019 12:50 7,5 C 6,7 C 6,7 C 98 % 1013,3 hPa 0,0 l/m 0 min 2 min 38 W/m 12,9 km/h (3 Bft) 100,00 %
01.03.2019 12:52 7,5 C 6,7 C 6,7 C 98 % 1013,3 hPa 0,0 l/m 0 min 2 min 36 W/m 12,9 km/h (3 Bft) 97,87 %
01.03.2019 12:54 7,5 C 6,7 C 6,7 C 98 % 1013,3 hPa 0,0 l/m 0 min 2 min 30 W/m 9,7 km/h (2 Bft) 97,87 %
01.03.2019 12:56 7,5 C 6,7 C 6,7 C 98 % 1013,3 hPa 0,0 l/m 0 min 2 min 34 W/m 19,3 km/h (3 Bft) 97,87 %
01.03.2019 12:58 7,5 C 6,7 C 6,1 C 98 % 1013,3 hPa 0,0 l/m 0 min 2 min 30 W/m 22,5 km/h (4 Bft) 91,30 %
01.03.2019 13:00 7,5 C 6,7 C 6,1 C 98 % 1013,4 hPa 0,0 l/m 0 min 2 min 31 W/m 12,9 km/h (3 Bft) 97,87 %
01.03.2019 13:02 7,5 C 6,7 C 6,7 C 98 % 1013,3 hPa 0,0 l/m 0 min 2 min 25 W/m 9,7 km/h (2 Bft) 100,00 %
01.03.2019 13:04 7,5 C 6,7 C 6,1 C 98 % 1013,4 hPa 0,0 l/m 0 min 0 min 25 W/m 12,9 km/h (3 Bft) 100,00 %
01.03.2019 13:06 7,5 C 6,7 C 6,1 C 98 % 1013,4 hPa 0,0 l/m 0 min 0 min 22 W/m 12,9 km/h (3 Bft) 100,00 %
01.03.2019 13:08 7,4 C 6,7 C 6,1 C 98 % 1013,4 hPa 0,0 l/m 0 min 0 min 20 W/m 12,9 km/h (3 Bft) 100,00 %
01.03.2019 13:10 7,5 C 6,7 C 6,1 C 98 % 1013,4 hPa 0,0 l/m 0 min 0 min 19 W/m 9,7 km/h (2 Bft) 97,83 %
01.03.2019 13:12 7,5 C 6,7 C 6,1 C 98 % 1013,4 hPa 0,0 l/m 0 min 2 min 19 W/m 6,4 km/h (2 Bft) 97,87 %
01.03.2019 13:14 7,5 C 6,7 C 6,1 C 98 % 1013,4 hPa 0,0 l/m 0 min 0 min 22 W/m 12,9 km/h (3 Bft) 100,00 %
01.03.2019 13:16 7,5 C 6,7 C 6,1 C 98 % 1013,4 hPa 0,2 l/m 0 min 2 min 20 W/m 12,9 km/h (3 Bft) 97,87 %
01.03.2019 13:18 7,5 C 6,7 C 6,1 C 98 % 1013,5 hPa 0,0 l/m 0 min 2 min 17 W/m 12,9 km/h (3 Bft) 100,00 %
01.03.2019 13:20 7,5 C 6,7 C 6,1 C 98 % 1013,7 hPa 0,0 l/m 0 min 0 min 17 W/m 22,5 km/h (4 Bft) 100,00 %
01.03.2019 13:22 7,4 C 6,1 C 6,1 C 98 % 1013,6 hPa 0,0 l/m 0 min 0 min 21 W/m 35,4 km/h (5 Bft) 97,83 %
01.03.2019 13:24 7,3 C 6,1 C 5,6 C 97 % 1013,6 hPa 0,0 l/m 0 min 0 min 18 W/m 29,0 km/h (5 Bft) 100,00 %
01.03.2019 13:26 7,2 C 6,1 C 5,6 C 97 % 1013,6 hPa 0,0 l/m 0 min 0 min 21 W/m 19,3 km/h (3 Bft) 97,87 %
01.03.2019 13:28 7,1 C 6,1 C 5,6 C 98 % 1013,6 hPa 0,0 l/m 0 min 0 min 24 W/m 29,0 km/h (5 Bft) 93,62 %
01.03.2019 13:30 7,0 C 6,1 C 5,6 C 98 % 1013,7 hPa 0,0 l/m 0 min 0 min 25 W/m 25,7 km/h (4 Bft) 95,74 %
01.03.2019 13:32 6,9 C 6,1 C 5,6 C 97 % 1013,9 hPa 0,0 l/m 0 min 0 min 29 W/m 29,0 km/h (5 Bft) 95,74 %
01.03.2019 13:34 6,8 C 5,6 C 5,6 C 97 % 1013,9 hPa 0,0 l/m 0 min 0 min 29 W/m 38,6 km/h (5 Bft) 93,48 %
01.03.2019 13:36 6,8 C 5,6 C 5,6 C 97 % 1013,9 hPa 0,0 l/m 0 min 0 min 27 W/m 25,7 km/h (4 Bft) 95,74 %
01.03.2019 13:38 6,7 C 5,6 C 5,6 C 97 % 1014,0 hPa 0,0 l/m 0 min 0 min 24 W/m 25,7 km/h (4 Bft) 95,74 %
01.03.2019 13:40 6,7 C 5,6 C 5,6 C 97 % 1014,1 hPa 0,0 l/m 0 min 0 min 22 W/m 22,5 km/h (4 Bft) 93,62 %
01.03.2019 13:42 6,6 C 5,6 C 5,6 C 97 % 1014,0 hPa 0,0 l/m 0 min 0 min 26 W/m 25,7 km/h (4 Bft) 93,62 %
01.03.2019 13:44 6,6 C 5,6 C 5,0 C 97 % 1014,0 hPa 0,0 l/m 0 min 0 min 28 W/m 32,2 km/h (5 Bft) 95,74 %
01.03.2019 13:46 6,5 C 5,6 C 5,0 C 97 % 1014,0 hPa 0,0 l/m 0 min 0 min 27 W/m 22,5 km/h (4 Bft) 93,48 %
01.03.2019 13:48 6,4 C 5,6 C 5,0 C 97 % 1014,0 hPa 0,0 l/m 0 min 0 min 26 W/m 22,5 km/h (4 Bft) 95,74 %
01.03.2019 13:50 6,4 C 5,6 C 5,0 C 97 % 1014,1 hPa 0,0 l/m 0 min 0 min 25 W/m 35,4 km/h (5 Bft) 95,74 %
01.03.2019 13:52 6,4 C 5,6 C 5,0 C 97 % 1014,1 hPa 0,0 l/m 0 min 0 min 25 W/m 22,5 km/h (4 Bft) 95,74 %
01.03.2019 13:54 6,3 C 5,6 C 5,0 C 97 % 1014,0 hPa 0,0 l/m 0 min 0 min 26 W/m 19,3 km/h (3 Bft) 95,74 %
01.03.2019 13:56 6,3 C 5,6 C 5,0 C 97 % 1014,1 hPa 0,0 l/m 0 min 0 min 28 W/m 32,2 km/h (5 Bft) 93,62 %
01.03.2019 13:58 6,2 C 5,6 C 5,0 C 97 % 1014,1 hPa 0,0 l/m 0 min 0 min 30 W/m 29,0 km/h (5 Bft) 95,65 %
01.03.2019 14:00 6,2 C 5,6 C 5,0 C 97 % 1014,1 hPa 0,0 l/m 0 min 0 min 32 W/m 25,7 km/h (4 Bft) 95,74 %
01.03.2019 14:02 6,2 C 5,6 C 5,0 C 97 % 1014,2 hPa 0,0 l/m 0 min 0 min 33 W/m 22,5 km/h (4 Bft) 95,74 %
01.03.2019 14:04 6,2 C 5,6 C 5,0 C 97 % 1014,2 hPa 0,0 l/m 0 min 0 min 32 W/m 22,5 km/h (4 Bft) 95,74 %
01.03.2019 14:06 6,1 C 5,6 C 5,0 C 97 % 1014,3 hPa 0,0 l/m 0 min 0 min 28 W/m 25,7 km/h (4 Bft) 95,74 %
01.03.2019 14:08 6,1 C 5,6 C 5,0 C 97 % 1014,3 hPa 0,0 l/m 0 min 0 min 30 W/m 19,3 km/h (3 Bft) 95,65 %
01.03.2019 14:10 6,1 C 5,6 C 5,0 C 97 % 1014,2 hPa 0,0 l/m 0 min 0 min 34 W/m 29,0 km/h (5 Bft) 97,87 %
01.03.2019 14:12 6,1 C 5,6 C 5,0 C 97 % 1014,3 hPa 0,0 l/m 0 min 0 min 38 W/m 16,1 km/h (3 Bft) 95,74 %
01.03.2019 14:14 6,1 C 5,6 C 5,0 C 97 % 1014,3 hPa 0,0 l/m 0 min 0 min 47 W/m 12,9 km/h (3 Bft) 93,62 %
01.03.2019 14:16 6,1 C 5,6 C 5,0 C 97 % 1014,2 hPa 0,0 l/m 0 min 0 min 56 W/m 19,3 km/h (3 Bft) 93,62 %
01.03.2019 14:18 6,1 C 5,6 C 5,0 C 97 % 1014,2 hPa 0,0 l/m 0 min 0 min 53 W/m 16,1 km/h (3 Bft) 95,74 %
01.03.2019 14:20 6,1 C 5,6 C 5,0 C 97 % 1014,2 hPa 0,0 l/m 0 min 0 min 50 W/m 12,9 km/h (3 Bft) 95,65 %
01.03.2019 14:22 6,1 C 5,6 C 5,0 C 97 % 1014,3 hPa 0,0 l/m 0 min 0 min 43 W/m 19,3 km/h (3 Bft) 97,87 %
01.03.2019 14:24 6,1 C 5,6 C 5,0 C 97 % 1014,3 hPa 0,0 l/m 0 min 0 min 44 W/m 29,0 km/h (5 Bft) 97,87 %
01.03.2019 14:26 6,0 C 5,6 C 5,0 C 97 % 1014,3 hPa 0,0 l/m 0 min 0 min 46 W/m 12,9 km/h (3 Bft) 97,87 %
01.03.2019 14:28 6,0 C 5,6 C 5,0 C 97 % 1014,3 hPa 0,0 l/m 0 min 0 min 46 W/m 12,9 km/h (3 Bft) 97,87 %
01.03.2019 14:30 6,0 C 5,6 C 5,0 C 97 % 1014,4 hPa 0,0 l/m 0 min 0 min 43 W/m 19,3 km/h (3 Bft) 97,87 %
01.03.2019 14:32 6,0 C 5,6 C 5,0 C 97 % 1014,4 hPa 0,0 l/m 0 min 0 min 42 W/m 19,3 km/h (3 Bft) 93,48 %
01.03.2019 14:34 5,9 C 5,6 C 5,0 C 97 % 1014,4 hPa 0,0 l/m 0 min 0 min 44 W/m 12,9 km/h (3 Bft) 97,87 %
01.03.2019 14:36 5,9 C 5,6 C 5,0 C 97 % 1014,4 hPa 0,0 l/m 0 min 0 min 49 W/m 22,5 km/h (4 Bft) 97,87 %
01.03.2019 14:38 5,9 C 5,6 C 5,0 C 97 % 1014,4 hPa 0,0 l/m 0 min 0 min 55 W/m 22,5 km/h (4 Bft) 97,87 %
01.03.2019 14:40 5,9 C 5,6 C 5,0 C 97 % 1014,4 hPa 0,0 l/m 0 min 0 min 55 W/m 16,1 km/h (3 Bft) 97,87 %
01.03.2019 14:42 5,9 C 5,6 C 5,0 C 97 % 1014,4 hPa 0,0 l/m 0 min 0 min 57 W/m 19,3 km/h (3 Bft) 95,74 %
01.03.2019 14:44 5,9 C 5,6 C 5,0 C 97 % 1014,4 hPa 0,0 l/m 0 min 0 min 66 W/m 12,9 km/h (3 Bft) 97,83 %
01.03.2019 14:46 5,9 C 5,6 C 5,0 C 97 % 1014,5 hPa 0,0 l/m 0 min 0 min 63 W/m 6,4 km/h (2 Bft) 97,87 %
01.03.2019 14:48 5,9 C 5,6 C 5,0 C 97 % 1014,5 hPa 0,0 l/m 0 min 0 min 52 W/m 12,9 km/h (3 Bft) 93,62 %
01.03.2019 14:50 5,9 C 5,6 C 5,0 C 97 % 1014,5 hPa 0,0 l/m 0 min 0 min 44 W/m 19,3 km/h (3 Bft) 97,87 %
01.03.2019 14:52 6,0 C 5,6 C 5,0 C 97 % 1014,5 hPa 0,0 l/m 0 min 0 min 39 W/m 19,3 km/h (3 Bft) 97,87 %
01.03.2019 14:54 5,9 C 5,6 C 5,0 C 97 % 1014,6 hPa 0,0 l/m 0 min 0 min 47 W/m 12,9 km/h (3 Bft) 97,87 %
01.03.2019 14:56 5,9 C 5,6 C 5,0 C 97 % 1014,6 hPa 0,0 l/m 0 min 0 min 63 W/m 12,9 km/h (3 Bft) 97,83 %
01.03.2019 14:58 5,9 C 5,6 C 5,0 C 97 % 1014,6 hPa 0,0 l/m 0 min 0 min 57 W/m 19,3 km/h (3 Bft) 97,87 %
01.03.2019 15:00 5,9 C 5,6 C 5,0 C 97 % 1014,6 hPa 0,0 l/m 0 min 0 min 49 W/m 12,9 km/h (3 Bft) 95,74 %
01.03.2019 15:02 5,9 C 5,6 C 5,0 C 97 % 1014,6 hPa 0,0 l/m 0 min 0 min 44 W/m 12,9 km/h (3 Bft) 95,74 %
01.03.2019 15:04 5,9 C 5,6 C 5,0 C 97 % 1014,5 hPa 0,0 l/m 0 min 0 min 41 W/m 9,7 km/h (2 Bft) 97,87 %
01.03.2019 15:06 5,9 C 5,6 C 5,0 C 97 % 1014,5 hPa 0,0 l/m 0 min 0 min 44 W/m 19,3 km/h (3 Bft) 93,62 %
01.03.2019 15:08 5,9 C 5,6 C 5,0 C 97 % 1014,5 hPa 0,0 l/m 0 min 0 min 44 W/m 22,5 km/h (4 Bft) 97,83 %
01.03.2019 15:10 5,9 C 5,6 C 5,0 C 97 % 1014,6 hPa 0,0 l/m 0 min 0 min 42 W/m 16,1 km/h (3 Bft) 97,87 %
01.03.2019 15:16 5,9 C 5,6 C 5,0 C 97 % 1014,6 hPa 0,0 l/m 0 min 0 min 37 W/m 12,9 km/h (3 Bft) 100,00 %
01.03.2019 15:18 5,9 C 5,6 C 5,0 C 97 % 1014,5 hPa 0,0 l/m 0 min 0 min 35 W/m 16,1 km/h (3 Bft) 93,62 %
01.03.2019 15:20 5,9 C 5,6 C 5,0 C 97 % 1014,6 hPa 0,0 l/m 0 min 0 min 31 W/m 22,5 km/h (4 Bft) 97,87 %
01.03.2019 15:22 5,9 C 5,6 C 5,0 C 97 % 1014,6 hPa 0,0 l/m 0 min 0 min 30 W/m 19,3 km/h (3 Bft) 100,00 %
01.03.2019 15:24 5,9 C 5,6 C 5,0 C 97 % 1014,7 hPa 0,0 l/m 0 min 0 min 31 W/m 16,1 km/h (3 Bft) 100,00 %
01.03.2019 15:26 5,9 C 5,6 C 5,0 C 97 % 1014,6 hPa 0,0 l/m 0 min 0 min 31 W/m 12,9 km/h (3 Bft) 97,87 %
01.03.2019 15:28 5,9 C 5,6 C 5,0 C 97 % 1014,7 hPa 0,0 l/m 0 min 0 min 30 W/m 19,3 km/h (3 Bft) 97,87 %
01.03.2019 15:30 5,9 C 5,6 C 5,0 C 97 % 1014,7 hPa 0,0 l/m 0 min 0 min 34 W/m 16,1 km/h (3 Bft) 100,00 %
01.03.2019 15:32 5,9 C 5,6 C 5,0 C 97 % 1014,8 hPa 0,0 l/m 0 min 0 min 40 W/m 12,9 km/h (3 Bft) 100,00 %
01.03.2019 15:34 5,9 C 5,6 C 5,0 C 97 % 1014,7 hPa 0,0 l/m 0 min 0 min 42 W/m 16,1 km/h (3 Bft) 100,00 %
01.03.2019 15:36 5,9 C 5,6 C 5,0 C 97 % 1014,7 hPa 0,0 l/m 0 min 0 min 42 W/m 16,1 km/h (3 Bft) 100,00 %
01.03.2019 15:38 5,9 C 5,6 C 5,0 C 97 % 1014,7 hPa 0,0 l/m 0 min 0 min 40 W/m 12,9 km/h (3 Bft) 100,00 %
01.03.2019 15:40 5,9 C 6,1 C 5,0 C 97 % 1014,8 hPa 0,0 l/m 0 min 0 min 37 W/m 9,7 km/h (2 Bft) 100,00 %
01.03.2019 15:42 5,9 C 6,1 C 5,0 C 97 % 1014,8 hPa 0,0 l/m 0 min 0 min 30 W/m 6,4 km/h (2 Bft) 100,00 %
01.03.2019 15:44 5,9 C 5,6 C 5,0 C 97 % 1014,9 hPa 0,0 l/m 0 min 0 min 24 W/m 9,7 km/h (2 Bft) 100,00 %
01.03.2019 15:46 6,0 C 5,6 C 5,0 C 97 % 1014,8 hPa 0,0 l/m 0 min 0 min 22 W/m 6,4 km/h (2 Bft) 100,00 %
01.03.2019 15:48 6,0 C 5,6 C 5,0 C 97 % 1014,8 hPa 0,0 l/m 0 min 0 min 20 W/m 9,7 km/h (2 Bft) 100,00 %
01.03.2019 15:50 6,0 C 5,6 C 5,0 C 97 % 1014,9 hPa 0,0 l/m 0 min 0 min 23 W/m 9,7 km/h (2 Bft) 97,87 %
01.03.2019 15:52 6,0 C 5,6 C 5,0 C 97 % 1014,9 hPa 0,0 l/m 0 min 0 min 23 W/m 6,4 km/h (2 Bft) 100,00 %
01.03.2019 15:54 6,0 C 5,6 C 5,0 C 97 % 1014,9 hPa 0,0 l/m 0 min 0 min 23 W/m 12,9 km/h (3 Bft) 100,00 %
01.03.2019 15:56 6,0 C 5,6 C 5,0 C 97 % 1014,9 hPa 0,0 l/m 0 min 0 min 26 W/m 9,7 km/h (2 Bft) 97,87 %
01.03.2019 15:58 6,0 C 5,6 C 5,0 C 97 % 1014,9 hPa 0,0 l/m 0 min 0 min 28 W/m 9,7 km/h (2 Bft) 100,00 %
01.03.2019 16:00 6,0 C 5,6 C 5,0 C 97 % 1014,8 hPa 0,0 l/m 0 min 0 min 26 W/m 12,9 km/h (3 Bft) 97,87 %
01.03.2019 16:02 6,0 C 5,6 C 5,0 C 97 % 1014,8 hPa 0,0 l/m 0 min 0 min 27 W/m 12,9 km/h (3 Bft) 100,00 %
01.03.2019 16:04 6,0 C 5,6 C 5,0 C 97 % 1014,8 hPa 0,0 l/m 0 min 0 min 26 W/m 9,7 km/h (2 Bft) 100,00 %
01.03.2019 16:06 6,0 C 6,1 C 5,0 C 97 % 1014,9 hPa 0,0 l/m 0 min 0 min 25 W/m 12,9 km/h (3 Bft) 100,00 %
01.03.2019 16:08 6,0 C 6,1 C 5,0 C 97 % 1014,8 hPa 0,0 l/m 0 min 0 min 24 W/m 9,7 km/h (2 Bft) 97,14 %
01.03.2019 16:10 6,1 C 6,1 C 5,0 C 97 % 1014,8 hPa 0,0 l/m 0 min 0 min 23 W/m 9,7 km/h (2 Bft) 100,00 %
01.03.2019 16:12 6,1 C 6,1 C 5,0 C 97 % 1014,9 hPa 0,0 l/m 0 min 0 min 24 W/m 12,9 km/h (3 Bft) 100,00 %
01.03.2019 16:14 6,1 C 6,1 C 5,0 C 97 % 1014,9 hPa 0,0 l/m 0 min 0 min 25 W/m 12,9 km/h (3 Bft) 100,00 %
01.03.2019 16:16 6,1 C 6,1 C 5,0 C 97 % 1015,0 hPa 0,0 l/m 0 min 0 min 26 W/m 12,9 km/h (3 Bft) 97,83 %
01.03.2019 16:18 6,1 C 6,1 C 5,0 C 97 % 1014,9 hPa 0,0 l/m 0 min 0 min 29 W/m 12,9 km/h (3 Bft) 97,87 %
01.03.2019 16:20 6,1 C 6,1 C 5,0 C 97 % 1015,0 hPa 0,0 l/m 0 min 0 min 30 W/m 12,9 km/h (3 Bft) 97,87 %
01.03.2019 16:22 6,1 C 6,1 C 5,0 C 97 % 1015,0 hPa 0,0 l/m 0 min 0 min 32 W/m 16,1 km/h (3 Bft) 97,87 %
01.03.2019 16:24 6,1 C 6,1 C 5,0 C 97 % 1014,9 hPa 0,0 l/m 0 min 0 min 34 W/m 9,7 km/h (2 Bft) 100,00 %
01.03.2019 16:26 6,1 C 6,1 C 5,0 C 97 % 1014,9 hPa 0,0 l/m 0 min 0 min 37 W/m 9,7 km/h (2 Bft) 97,87 %
01.03.2019 16:28 6,1 C 6,1 C 5,0 C 97 % 1014,9 hPa 0,0 l/m 0 min 0 min 36 W/m 12,9 km/h (3 Bft) 97,87 %
01.03.2019 16:30 6,1 C 6,1 C 5,0 C 97 % 1015,0 hPa 0,0 l/m 0 min 0 min 31 W/m 6,4 km/h (2 Bft) 97,83 %
01.03.2019 16:32 6,1 C 6,1 C 5,0 C 97 % 1015,0 hPa 0,0 l/m 0 min 0 min 29 W/m 9,7 km/h (2 Bft) 97,87 %
01.03.2019 16:34 6,1 C 6,1 C 5,0 C 96 % 1015,0 hPa 0,0 l/m 0 min 0 min 28 W/m 12,9 km/h (3 Bft) 95,74 %
01.03.2019 16:36 6,1 C 6,1 C 5,0 C 96 % 1015,0 hPa 0,0 l/m 0 min 0 min 28 W/m 9,7 km/h (2 Bft) 98,28 %
01.03.2019 16:38 6,1 C 6,1 C 5,0 C 96 % 1015,0 hPa 0,0 l/m 0 min 0 min 28 W/m 9,7 km/h (2 Bft) 97,22 %
01.03.2019 16:40 6,1 C 6,1 C 5,0 C 96 % 1015,0 hPa 0,0 l/m 0 min 0 min 26 W/m 6,4 km/h (2 Bft) 97,83 %
01.03.2019 16:42 6,1 C 6,1 C 5,0 C 96 % 1015,0 hPa 0,0 l/m 0 min 0 min 25 W/m 6,4 km/h (2 Bft) 97,87 %
01.03.2019 16:44 6,1 C 6,1 C 5,0 C 96 % 1015,1 hPa 0,0 l/m 0 min 0 min 24 W/m 9,7 km/h (2 Bft) 97,87 %
01.03.2019 16:46 6,1 C 6,1 C 5,0 C 96 % 1015,1 hPa 0,0 l/m 0 min 0 min 21 W/m 12,9 km/h (3 Bft) 97,87 %
01.03.2019 16:48 6,1 C 6,1 C 5,0 C 96 % 1015,1 hPa 0,0 l/m 0 min 0 min 21 W/m 12,9 km/h (3 Bft) 97,87 %
01.03.2019 16:50 6,1 C 6,1 C 5,0 C 96 % 1015,2 hPa 0,0 l/m 0 min 0 min 19 W/m 6,4 km/h (2 Bft) 97,87 %
01.03.2019 16:52 6,1 C 6,1 C 5,0 C 96 % 1015,2 hPa 0,0 l/m 0 min 0 min 17 W/m 9,7 km/h (2 Bft) 97,83 %
01.03.2019 16:54 6,1 C 6,1 C 5,0 C 96 % 1015,2 hPa 0,0 l/m 0 min 0 min 16 W/m 9,7 km/h (2 Bft) 95,74 %
01.03.2019 16:56 6,1 C 6,1 C 5,0 C 96 % 1015,2 hPa 0,0 l/m 0 min 0 min 13 W/m 9,7 km/h (2 Bft) 95,74 %
01.03.2019 16:58 6,1 C 6,1 C 5,0 C 96 % 1015,3 hPa 0,0 l/m 0 min 0 min 11 W/m 9,7 km/h (2 Bft) 97,87 %
01.03.2019 17:00 6,1 C 5,6 C 5,0 C 96 % 1015,3 hPa 0,0 l/m 0 min 0 min 11 W/m 9,7 km/h (2 Bft) 97,87 %
01.03.2019 17:02 6,1 C 5,6 C 5,0 C 95 % 1015,3 hPa 0,0 l/m 0 min 0 min 11 W/m 6,4 km/h (2 Bft) 97,87 %
01.03.2019 17:04 6,1 C 5,6 C 5,0 C 95 % 1015,3 hPa 0,0 l/m 0 min 0 min 11 W/m 6,4 km/h (2 Bft) 97,83 %
01.03.2019 17:06 6,1 C 5,6 C 5,0 C 95 % 1015,3 hPa 0,0 l/m 0 min 0 min 10 W/m 6,4 km/h (2 Bft) 93,62 %
01.03.2019 17:08 6,1 C 5,6 C 5,0 C 95 % 1015,3 hPa 0,0 l/m 0 min 0 min 9 W/m 9,7 km/h (2 Bft) 95,74 %
01.03.2019 17:10 6,1 C 5,6 C 5,0 C 95 % 1015,4 hPa 0,0 l/m 0 min 0 min 8 W/m 6,4 km/h (2 Bft) 95,74 %
01.03.2019 17:12 6,1 C 5,6 C 5,0 C 95 % 1015,4 hPa 0,0 l/m 0 min 0 min 7 W/m 6,4 km/h (2 Bft) 95,74 %
01.03.2019 17:14 6,1 C 5,6 C 5,0 C 95 % 1015,5 hPa 0,0 l/m 0 min 0 min 6 W/m 9,7 km/h (2 Bft) 95,74 %
01.03.2019 17:16 6,2 C 5,6 C 5,0 C 95 % 1015,5 hPa 0,0 l/m 0 min 0 min 5 W/m 9,7 km/h (2 Bft) 91,30 %
01.03.2019 17:18 6,1 C 5,6 C 5,0 C 95 % 1015,6 hPa 0,0 l/m 0 min 0 min 5 W/m 16,1 km/h (3 Bft) 95,74 %
01.03.2019 17:20 6,1 C 5,6 C 5,0 C 95 % 1015,6 hPa 0,0 l/m 0 min 0 min 5 W/m 12,9 km/h (3 Bft) 93,62 %
01.03.2019 17:22 6,1 C 5,6 C 5,0 C 95 % 1015,6 hPa 0,0 l/m 0 min 0 min 5 W/m 16,1 km/h (3 Bft) 95,74 %
01.03.2019 17:24 6,1 C 5,6 C 4,4 C 95 % 1015,6 hPa 0,0 l/m 0 min 0 min 5 W/m 22,5 km/h (4 Bft) 95,74 %
01.03.2019 17:26 6,1 C 5,6 C 4,4 C 95 % 1015,6 hPa 0,0 l/m 0 min 0 min 5 W/m 22,5 km/h (4 Bft) 93,48 %
01.03.2019 17:28 6,1 C 5,6 C 4,4 C 95 % 1015,6 hPa 0,0 l/m 0 min 0 min 5 W/m 16,1 km/h (3 Bft) 93,62 %
01.03.2019 17:30 6,1 C 5,6 C 4,4 C 94 % 1015,6 hPa 0,0 l/m 0 min 0 min 5 W/m 12,9 km/h (3 Bft) 95,74 %
01.03.2019 17:32 6,1 C 5,6 C 4,4 C 94 % 1015,7 hPa 0,0 l/m 0 min 0 min 5 W/m 12,9 km/h (3 Bft) 95,74 %
01.03.2019 17:34 6,0 C 5,6 C 4,4 C 94 % 1015,7 hPa 0,0 l/m 0 min 0 min 2 W/m 12,9 km/h (3 Bft) 95,74 %
01.03.2019 17:36 6,0 C 5,6 C 4,4 C 94 % 1015,7 hPa 0,0 l/m 0 min 0 min 0 W/m 16,1 km/h (3 Bft) 95,74 %
01.03.2019 17:38 6,0 C 5,6 C 4,4 C 94 % 1015,7 hPa 0,0 l/m 0 min 0 min 0 W/m 12,9 km/h (3 Bft) 95,65 %
01.03.2019 17:40 6,0 C 5,6 C 4,4 C 94 % 1015,6 hPa 0,0 l/m 0 min 0 min 0 W/m 12,9 km/h (3 Bft) 95,74 %
01.03.2019 17:42 6,0 C 5,6 C 4,4 C 93 % 1015,7 hPa 0,0 l/m 0 min 0 min 0 W/m 12,9 km/h (3 Bft) 93,62 %
01.03.2019 17:44 5,9 C 5,6 C 4,4 C 93 % 1015,7 hPa 0,0 l/m 0 min 0 min 0 W/m 16,1 km/h (3 Bft) 95,74 %
01.03.2019 17:46 5,9 C 5,6 C 4,4 C 93 % 1015,7 hPa 0,0 l/m 0 min 0 min 0 W/m 25,7 km/h (4 Bft) 93,62 %
01.03.2019 17:48 5,9 C 5,6 C 4,4 C 93 % 1015,8 hPa 0,0 l/m 0 min 0 min 0 W/m 16,1 km/h (3 Bft) 95,74 %
01.03.2019 17:50 5,9 C 5,6 C 4,4 C 93 % 1015,8 hPa 0,0 l/m 0 min 0 min 0 W/m 19,3 km/h (3 Bft) 95,65 %
01.03.2019 17:52 5,9 C 5,6 C 4,4 C 93 % 1015,7 hPa 0,0 l/m 0 min 0 min 0 W/m 16,1 km/h (3 Bft) 95,74 %
01.03.2019 17:54 5,9 C 5,6 C 4,4 C 93 % 1015,8 hPa 0,0 l/m 0 min 0 min 0 W/m 9,7 km/h (2 Bft) 93,62 %
01.03.2019 17:56 5,9 C 5,6 C 4,4 C 93 % 1015,8 hPa 0,0 l/m 0 min 0 min 0 W/m 12,9 km/h (3 Bft) 95,74 %
01.03.2019 17:58 5,9 C 5,6 C 4,4 C 93 % 1015,8 hPa 0,0 l/m 0 min 0 min 0 W/m 19,3 km/h (3 Bft) 93,62 %
01.03.2019 18:00 5,9 C 5,6 C 4,4 C 93 % 1015,9 hPa 0,0 l/m 0 min 0 min 0 W/m 12,9 km/h (3 Bft) 93,62 %
01.03.2019 18:02 5,9 C 5,6 C 4,4 C 93 % 1015,9 hPa 0,0 l/m 0 min 0 min 0 W/m 12,9 km/h (3 Bft) 97,83 %
01.03.2019 18:04 5,9 C 5,6 C 4,4 C 93 % 1015,9 hPa 0,0 l/m 0 min 0 min 0 W/m 19,3 km/h (3 Bft) 95,74 %
01.03.2019 18:08 5,9 C 5,6 C 4,4 C 93 % 1016,1 hPa 0,0 l/m 0 min 0 min 0 W/m 12,9 km/h (3 Bft) 97,87 %
01.03.2019 18:10 5,9 C 5,6 C 4,4 C 93 % 1016,0 hPa 0,0 l/m 0 min 0 min 0 W/m 16,1 km/h (3 Bft) 97,87 %
01.03.2019 18:12 5,9 C 5,0 C 4,4 C 92 % 1016,0 hPa 0,0 l/m 0 min 0 min 0 W/m 16,1 km/h (3 Bft) 100,00 %
01.03.2019 18:14 5,9 C 5,0 C 4,4 C 92 % 1016,1 hPa 0,0 l/m 0 min 0 min 0 W/m 12,9 km/h (3 Bft) 100,00 %
01.03.2019 18:16 5,8 C 5,0 C 4,4 C 92 % 1016,1 hPa 0,0 l/m 0 min 0 min 0 W/m 9,7 km/h (2 Bft) 97,87 %
01.03.2019 18:18 5,8 C 5,0 C 4,4 C 92 % 1016,1 hPa 0,0 l/m 0 min 0 min 0 W/m 19,3 km/h (3 Bft) 100,00 %
01.03.2019 18:20 5,8 C 5,0 C 4,4 C 92 % 1016,1 hPa 0,0 l/m 0 min 0 min 0 W/m 12,9 km/h (3 Bft) 97,87 %
01.03.2019 18:22 5,8 C 5,0 C 4,4 C 92 % 1016,1 hPa 0,0 l/m 0 min 0 min 0 W/m 16,1 km/h (3 Bft) 100,00 %
01.03.2019 18:24 5,8 C 5,0 C 4,4 C 92 % 1016,1 hPa 0,0 l/m 0 min 0 min 0 W/m 16,1 km/h (3 Bft) 100,00 %
01.03.2019 18:26 5,8 C 5,0 C 4,4 C 92 % 1016,1 hPa 0,0 l/m 0 min 0 min 0 W/m 19,3 km/h (3 Bft) 97,83 %
01.03.2019 18:28 5,7 C 5,0 C 4,4 C 92 % 1016,2 hPa 0,0 l/m 0 min 0 min 0 W/m 12,9 km/h (3 Bft) 100,00 %
01.03.2019 18:30 5,7 C 5,0 C 4,4 C 92 % 1016,1 hPa 0,0 l/m 0 min 0 min 0 W/m 12,9 km/h (3 Bft) 97,87 %
01.03.2019 18:32 5,7 C 5,0 C 3,9 C 92 % 1016,0 hPa 0,0 l/m 0 min 0 min 0 W/m 9,7 km/h (2 Bft) 100,00 %
01.03.2019 18:34 5,7 C 5,0 C 3,9 C 92 % 1016,1 hPa 0,0 l/m 0 min 0 min 0 W/m 12,9 km/h (3 Bft) 100,00 %
01.03.2019 18:36 5,7 C 5,0 C 3,9 C 92 % 1016,1 hPa 0,0 l/m 0 min 0 min 0 W/m 9,7 km/h (2 Bft) 100,00 %
01.03.2019 18:38 5,7 C 5,0 C 3,9 C 92 % 1016,0 hPa 0,0 l/m 0 min 0 min 0 W/m 12,9 km/h (3 Bft) 100,00 %
01.03.2019 18:40 5,7 C 5,0 C 3,9 C 91 % 1016,0 hPa 0,0 l/m 0 min 0 min 0 W/m 9,7 km/h (2 Bft) 100,00 %
01.03.2019 18:42 5,7 C 5,0 C 3,9 C 91 % 1016,1 hPa 0,0 l/m 0 min 0 min 0 W/m 9,7 km/h (2 Bft) 97,87 %
01.03.2019 18:44 5,7 C 5,0 C 3,9 C 91 % 1016,1 hPa 0,0 l/m 0 min 0 min 0 W/m 9,7 km/h (2 Bft) 100,00 %
01.03.2019 18:46 5,7 C 5,0 C 3,9 C 91 % 1016,1 hPa 0,0 l/m 0 min 0 min 0 W/m 3,2 km/h (1 Bft) 97,87 %
01.03.2019 18:48 5,7 C 5,0 C 3,9 C 91 % 1016,2 hPa 0,0 l/m 0 min 0 min 0 W/m 6,4 km/h (2 Bft) 100,00 %
01.03.2019 18:50 5,7 C 5,0 C 3,9 C 91 % 1016,2 hPa 0,0 l/m 0 min 0 min 0 W/m 6,4 km/h (2 Bft) 97,87 %
01.03.2019 18:52 5,7 C 5,0 C 3,9 C 91 % 1016,2 hPa 0,0 l/m 0 min 0 min 0 W/m 6,4 km/h (2 Bft) 100,00 %
01.03.2019 18:54 5,7 C 5,0 C 3,9 C 91 % 1016,3 hPa 0,0 l/m 0 min 0 min 0 W/m 6,4 km/h (2 Bft) 100,00 %
01.03.2019 18:56 5,7 C 5,0 C 3,9 C 91 % 1016,3 hPa 0,0 l/m 0 min 0 min 0 W/m 9,7 km/h (2 Bft) 97,87 %
01.03.2019 18:58 5,7 C 5,0 C 3,9 C 91 % 1016,4 hPa 0,0 l/m 0 min 0 min 0 W/m 9,7 km/h (2 Bft) 100,00 %
01.03.2019 19:00 5,7 C 5,0 C 3,9 C 91 % 1016,4 hPa 0,0 l/m 0 min 0 min 0 W/m 9,7 km/h (2 Bft) 97,83 %
01.03.2019 19:02 5,7 C 5,0 C 3,9 C 91 % 1016,4 hPa 0,0 l/m 0 min 0 min 0 W/m 9,7 km/h (2 Bft) 97,87 %
01.03.2019 19:04 5,7 C 5,0 C 3,9 C 91 % 1016,5 hPa 0,0 l/m 0 min 0 min 0 W/m 3,2 km/h (1 Bft) 97,87 %
01.03.2019 19:06 5,7 C 5,0 C 3,9 C 91 % 1016,5 hPa 0,0 l/m 0 min 0 min 0 W/m 6,4 km/h (2 Bft) 95,74 %
01.03.2019 19:08 5,7 C 5,0 C 3,9 C 91 % 1016,5 hPa 0,0 l/m 0 min 0 min 0 W/m 6,4 km/h (2 Bft) 100,00 %
01.03.2019 19:10 5,7 C 5,0 C 3,9 C 91 % 1016,5 hPa 0,0 l/m 0 min 0 min 0 W/m 6,4 km/h (2 Bft) 97,87 %
01.03.2019 19:12 5,7 C 5,0 C 3,9 C 91 % 1016,5 hPa 0,0 l/m 0 min 0 min 0 W/m 9,7 km/h (2 Bft) 97,83 %
01.03.2019 19:14 5,6 C 5,0 C 3,9 C 91 % 1016,5 hPa 0,0 l/m 0 min 0 min 0 W/m 6,4 km/h (2 Bft) 97,87 %
01.03.2019 19:16 5,7 C 5,0 C 3,9 C 91 % 1016,6 hPa 0,0 l/m 0 min 0 min 0 W/m 6,4 km/h (2 Bft) 95,74 %
01.03.2019 19:18 5,6 C 5,0 C 3,9 C 91 % 1016,5 hPa 0,0 l/m 0 min 0 min 0 W/m 6,4 km/h (2 Bft) 97,87 %
01.03.2019 19:20 5,6 C 5,0 C 3,9 C 91 % 1016,6 hPa 0,0 l/m 0 min 0 min 0 W/m 9,7 km/h (2 Bft) 91,49 %
01.03.2019 19:22 5,6 C 5,0 C 3,9 C 91 % 1016,6 hPa 0,0 l/m 0 min 0 min 0 W/m 6,4 km/h (2 Bft) 97,87 %
01.03.2019 19:24 5,6 C 5,0 C 3,9 C 91 % 1016,6 hPa 0,0 l/m 0 min 0 min 0 W/m 6,4 km/h (2 Bft) 97,83 %
01.03.2019 19:26 5,6 C 5,0 C 3,9 C 91 % 1016,6 hPa 0,0 l/m 0 min 0 min 0 W/m 6,4 km/h (2 Bft) 97,87 %
01.03.2019 19:28 5,6 C 5,0 C 3,9 C 91 % 1016,5 hPa 0,0 l/m 0 min 0 min 0 W/m 3,2 km/h (1 Bft) 97,87 %
01.03.2019 19:30 5,6 C 5,0 C 3,9 C 91 % 1016,6 hPa 0,0 l/m 0 min 0 min 0 W/m 6,4 km/h (2 Bft) 95,74 %
01.03.2019 19:32 5,6 C 5,0 C 3,9 C 91 % 1016,6 hPa 0,0 l/m 0 min 0 min 0 W/m 3,2 km/h (1 Bft) 95,74 %
01.03.2019 19:34 5,6 C 5,0 C 3,9 C 91 % 1016,6 hPa 0,0 l/m 0 min 0 min 0 W/m 6,4 km/h (2 Bft) 97,87 %
01.03.2019 19:36 5,6 C 5,0 C 3,9 C 91 % 1016,6 hPa 0,0 l/m 0 min 0 min 0 W/m 3,2 km/h (1 Bft) 97,83 %
01.03.2019 19:38 5,6 C 5,0 C 3,9 C 91 % 1016,6 hPa 0,0 l/m 0 min 0 min 0 W/m 6,4 km/h (2 Bft) 97,87 %
01.03.2019 19:40 5,6 C 5,0 C 3,9 C 91 % 1016,6 hPa 0,0 l/m 0 min 0 min 0 W/m 6,4 km/h (2 Bft) 97,87 %
01.03.2019 19:42 5,6 C 5,0 C 3,9 C 91 % 1016,6 hPa 0,0 l/m 0 min 0 min 0 W/m 12,9 km/h (3 Bft) 97,87 %
01.03.2019 19:44 5,6 C 5,0 C 3,9 C 91 % 1016,7 hPa 0,0 l/m 0 min 0 min 0 W/m 9,7 km/h (2 Bft) 97,87 %
01.03.2019 19:46 5,6 C 5,0 C 3,9 C 91 % 1016,6 hPa 0,0 l/m 0 min 0 min 0 W/m 12,9 km/h (3 Bft) 97,87 %
01.03.2019 19:48 5,6 C 5,0 C 3,9 C 91 % 1016,6 hPa 0,0 l/m 0 min 0 min 0 W/m 9,7 km/h (2 Bft) 97,83 %
01.03.2019 19:50 5,6 C 5,0 C 3,9 C 92 % 1016,6 hPa 0,0 l/m 0 min 0 min 0 W/m 9,7 km/h (2 Bft) 97,87 %
01.03.2019 19:52 5,6 C 5,0 C 3,9 C 92 % 1016,7 hPa 0,0 l/m 0 min 0 min 0 W/m 6,4 km/h (2 Bft) 95,74 %
01.03.2019 19:54 5,6 C 5,0 C 3,9 C 91 % 1016,7 hPa 0,0 l/m 0 min 0 min 0 W/m 9,7 km/h (2 Bft) 97,87 %
01.03.2019 19:56 5,6 C 5,0 C 3,9 C 91 % 1016,7 hPa 0,0 l/m 0 min 0 min 0 W/m 6,4 km/h (2 Bft) 97,87 %
01.03.2019 19:58 5,6 C 5,0 C 3,9 C 91 % 1016,8 hPa 0,0 l/m 0 min 0 min 0 W/m 6,4 km/h (2 Bft) 97,83 %
01.03.2019 20:00 5,6 C 5,0 C 3,9 C 91 % 1016,8 hPa 0,0 l/m 0 min 0 min 0 W/m 6,4 km/h (2 Bft) 95,74 %
01.03.2019 20:02 5,5 C 5,0 C 3,9 C 91 % 1016,8 hPa 0,0 l/m 0 min 0 min 0 W/m 9,7 km/h (2 Bft) 97,87 %
01.03.2019 20:04 5,5 C 5,0 C 3,9 C 91 % 1016,9 hPa 0,0 l/m 0 min 0 min 0 W/m 6,4 km/h (2 Bft) 95,74 %
01.03.2019 20:06 5,5 C 5,0 C 3,9 C 91 % 1016,9 hPa 0,0 l/m 0 min 0 min 0 W/m 6,4 km/h (2 Bft) 97,87 %
01.03.2019 20:08 5,5 C 5,0 C 4,4 C 91 % 1016,9 hPa 0,0 l/m 0 min 0 min 0 W/m 9,7 km/h (2 Bft) 97,87 %
01.03.2019 20:10 5,5 C 5,0 C 4,4 C 91 % 1016,8 hPa 0,0 l/m 0 min 0 min 0 W/m 9,7 km/h (2 Bft) 95,74 %
01.03.2019 20:12 5,5 C 5,0 C 4,4 C 91 % 1016,9 hPa 0,0 l/m 0 min 0 min 0 W/m 12,9 km/h (3 Bft) 97,83 %
01.03.2019 20:14 5,5 C 5,0 C 4,4 C 91 % 1016,9 hPa 0,0 l/m 0 min 0 min 0 W/m 9,7 km/h (2 Bft) 95,74 %
01.03.2019 20:16 5,5 C 5,0 C 4,4 C 91 % 1016,9 hPa 0,0 l/m 0 min 0 min 0 W/m 6,4 km/h (2 Bft) 93,62 %
01.03.2019 20:18 5,5 C 5,0 C 4,4 C 91 % 1016,8 hPa 0,0 l/m 0 min 0 min 0 W/m 9,7 km/h (2 Bft) 97,87 %
01.03.2019 20:20 5,5 C 5,0 C 4,4 C 91 % 1016,8 hPa 0,0 l/m 0 min 0 min 0 W/m 12,9 km/h (3 Bft) 97,87 %
01.03.2019 20:22 5,4 C 5,0 C 4,4 C 91 % 1016,8 hPa 0,0 l/m 0 min 0 min 0 W/m 9,7 km/h (2 Bft) 95,65 %
01.03.2019 20:24 5,4 C 5,0 C 4,4 C 91 % 1016,8 hPa 0,0 l/m 0 min 0 min 0 W/m 6,4 km/h (2 Bft) 97,87 %
01.03.2019 20:26 5,4 C 5,0 C 4,4 C 91 % 1016,8 hPa 0,0 l/m 0 min 0 min 0 W/m 6,4 km/h (2 Bft) 97,87 %
01.03.2019 20:28 5,4 C 5,0 C 4,4 C 91 % 1016,8 hPa 0,0 l/m 0 min 0 min 0 W/m 6,4 km/h (2 Bft) 97,87 %
01.03.2019 20:30 5,4 C 5,0 C 4,4 C 91 % 1016,7 hPa 0,0 l/m 0 min 0 min 0 W/m 12,9 km/h (3 Bft) 97,87 %
01.03.2019 20:32 5,4 C 5,0 C 4,4 C 91 % 1016,6 hPa 0,0 l/m 0 min 0 min 0 W/m 3,2 km/h (1 Bft) 97,87 %
01.03.2019 20:34 5,4 C 5,0 C 4,4 C 91 % 1016,6 hPa 0,0 l/m 0 min 0 min 0 W/m 6,4 km/h (2 Bft) 97,83 %
01.03.2019 20:36 5,4 C 5,0 C 4,4 C 91 % 1016,7 hPa 0,0 l/m 0 min 0 min 0 W/m 6,4 km/h (2 Bft) 97,87 %
01.03.2019 20:38 5,4 C 5,0 C 4,4 C 91 % 1016,7 hPa 0,0 l/m 0 min 0 min 0 W/m 3,2 km/h (1 Bft) 96,15 %
01.03.2019 20:40 5,4 C 5,0 C 4,4 C 91 % 1016,7 hPa 0,0 l/m 0 min 0 min 0 W/m 6,4 km/h (2 Bft) 97,78 %
01.03.2019 20:42 5,4 C 5,0 C 4,4 C 91 % 1016,8 hPa 0,0 l/m 0 min 0 min 0 W/m 9,7 km/h (2 Bft) 97,87 %
01.03.2019 20:44 5,4 C 5,0 C 4,4 C 90 % 1016,8 hPa 0,0 l/m 0 min 0 min 0 W/m 3,2 km/h (1 Bft) 95,65 %
01.03.2019 20:46 5,4 C 5,0 C 4,4 C 90 % 1016,8 hPa 0,0 l/m 0 min 0 min 0 W/m 6,4 km/h (2 Bft) 95,74 %
01.03.2019 20:48 5,4 C 5,0 C 4,4 C 90 % 1016,7 hPa 0,0 l/m 0 min 0 min 0 W/m 6,4 km/h (2 Bft) 95,74 %
01.03.2019 20:50 5,3 C 5,0 C 4,4 C 90 % 1016,7 hPa 0,0 l/m 0 min 0 min 0 W/m 6,4 km/h (2 Bft) 97,87 %
01.03.2019 20:52 5,3 C 5,0 C 4,4 C 90 % 1016,7 hPa 0,0 l/m 0 min 0 min 0 W/m 6,4 km/h (2 Bft) 95,74 %
01.03.2019 20:54 5,3 C 5,0 C 4,4 C 90 % 1016,7 hPa 0,0 l/m 0 min 0 min 0 W/m 6,4 km/h (2 Bft) 95,74 %
01.03.2019 20:56 5,3 C 5,0 C 4,4 C 90 % 1016,7 hPa 0,0 l/m 0 min 0 min 0 W/m 3,2 km/h (1 Bft) 97,83 %
01.03.2019 20:58 5,3 C 5,0 C 4,4 C 90 % 1016,7 hPa 0,0 l/m 0 min 0 min 0 W/m 6,4 km/h (2 Bft) 97,87 %
01.03.2019 21:00 5,3 C 5,0 C 4,4 C 90 % 1016,7 hPa 0,0 l/m 0 min 0 min 0 W/m 3,2 km/h (1 Bft) 97,87 %
01.03.2019 21:02 5,3 C 5,0 C 4,4 C 90 % 1016,8 hPa 0,0 l/m 0 min 0 min 0 W/m 3,2 km/h (1 Bft) 97,87 %
01.03.2019 21:04 5,3 C 5,0 C 4,4 C 90 % 1016,8 hPa 0,0 l/m 0 min 0 min 0 W/m 6,4 km/h (2 Bft) 97,87 %
01.03.2019 21:06 5,3 C 5,0 C 4,4 C 90 % 1016,8 hPa 0,0 l/m 0 min 0 min 0 W/m 9,7 km/h (2 Bft) 97,87 %
01.03.2019 21:08 5,3 C 5,0 C 4,4 C 90 % 1016,8 hPa 0,0 l/m 0 min 0 min 0 W/m 6,4 km/h (2 Bft) 97,83 %
01.03.2019 21:10 5,3 C 5,0 C 4,4 C 90 % 1016,8 hPa 0,0 l/m 0 min 0 min 0 W/m 6,4 km/h (2 Bft) 97,87 %
01.03.2019 21:12 5,3 C 5,0 C 4,4 C 90 % 1016,9 hPa 0,0 l/m 0 min 0 min 0 W/m 6,4 km/h (2 Bft) 95,74 %
01.03.2019 21:14 5,3 C 5,0 C 4,4 C 89 % 1016,8 hPa 0,0 l/m 0 min 0 min 0 W/m 6,4 km/h (2 Bft) 97,87 %
01.03.2019 21:16 5,3 C 5,0 C 4,4 C 89 % 1016,7 hPa 0,0 l/m 0 min 0 min 0 W/m 6,4 km/h (2 Bft) 97,87 %
01.03.2019 21:18 5,3 C 5,0 C 4,4 C 89 % 1016,8 hPa 0,0 l/m 0 min 0 min 0 W/m 6,4 km/h (2 Bft) 97,87 %
01.03.2019 21:20 5,3 C 5,0 C 4,4 C 89 % 1016,8 hPa 0,0 l/m 0 min 0 min 0 W/m 3,2 km/h (1 Bft) 95,65 %
01.03.2019 21:22 5,3 C 5,0 C 4,4 C 89 % 1016,8 hPa 0,0 l/m 0 min 0 min 0 W/m 6,4 km/h (2 Bft) 97,87 %
01.03.2019 21:24 5,3 C 5,0 C 4,4 C 89 % 1016,7 hPa 0,0 l/m 0 min 0 min 0 W/m 3,2 km/h (1 Bft) 97,87 %
01.03.2019 21:26 5,3 C 5,0 C 4,4 C 89 % 1016,7 hPa 0,0 l/m 0 min 0 min 0 W/m 3,2 km/h (1 Bft) 93,62 %
01.03.2019 21:28 5,3 C 5,0 C 4,4 C 89 % 1016,7 hPa 0,0 l/m 0 min 0 min 0 W/m 9,7 km/h (2 Bft) 97,87 %
01.03.2019 21:30 5,3 C 5,0 C 4,4 C 89 % 1016,7 hPa 0,0 l/m 0 min 0 min 0 W/m 6,4 km/h (2 Bft) 97,87 %
01.03.2019 21:32 5,3 C 5,0 C 4,4 C 89 % 1016,8 hPa 0,0 l/m 0 min 0 min 0 W/m 6,4 km/h (2 Bft) 97,83 %
01.03.2019 21:34 5,3 C 5,0 C 4,4 C 89 % 1016,8 hPa 0,0 l/m 0 min 0 min 0 W/m 6,4 km/h (2 Bft) 97,87 %
01.03.2019 21:36 5,3 C 5,0 C 4,4 C 89 % 1016,8 hPa 0,0 l/m 0 min 0 min 0 W/m 6,4 km/h (2 Bft) 95,74 %
01.03.2019 21:38 5,3 C 5,0 C 4,4 C 89 % 1016,8 hPa 0,0 l/m 0 min 0 min 0 W/m 9,7 km/h (2 Bft) 97,87 %
01.03.2019 21:40 5,3 C 5,0 C 4,4 C 89 % 1016,7 hPa 0,0 l/m 0 min 0 min 0 W/m 6,4 km/h (2 Bft) 95,74 %
01.03.2019 21:42 5,3 C 5,0 C 4,4 C 89 % 1016,8 hPa 0,0 l/m 0 min 0 min 0 W/m 6,4 km/h (2 Bft) 95,65 %
01.03.2019 21:44 5,4 C 5,0 C 4,4 C 89 % 1016,7 hPa 0,0 l/m 0 min 0 min 0 W/m 6,4 km/h (2 Bft) 97,87 %
01.03.2019 21:46 5,3 C 5,0 C 4,4 C 89 % 1016,8 hPa 0,0 l/m 0 min 0 min 0 W/m 6,4 km/h (2 Bft) 100,00 %
01.03.2019 21:48 5,4 C 5,0 C 4,4 C 89 % 1016,8 hPa 0,0 l/m 0 min 0 min 0 W/m 6,4 km/h (2 Bft) 100,00 %
01.03.2019 21:50 5,4 C 5,0 C 4,4 C 89 % 1016,8 hPa 0,0 l/m 0 min 0 min 0 W/m 3,2 km/h (1 Bft) 93,62 %
01.03.2019 21:52 5,4 C 5,0 C 4,4 C 89 % 1016,7 hPa 0,0 l/m 0 min 0 min 0 W/m 6,4 km/h (2 Bft) 97,87 %
01.03.2019 21:54 5,4 C 5,0 C 4,4 C 89 % 1016,7 hPa 0,0 l/m 0 min 0 min 0 W/m 3,2 km/h (1 Bft) 97,83 %
01.03.2019 21:56 5,4 C 5,0 C 4,4 C 89 % 1016,7 hPa 0,0 l/m 0 min 0 min 0 W/m 3,2 km/h (1 Bft) 97,87 %
01.03.2019 21:58 5,4 C 5,0 C 4,4 C 89 % 1016,8 hPa 0,0 l/m 0 min 0 min 0 W/m 6,4 km/h (2 Bft) 97,87 %
01.03.2019 22:00 5,4 C 5,0 C 4,4 C 89 % 1016,8 hPa 0,0 l/m 0 min 0 min 0 W/m 3,2 km/h (1 Bft) 95,74 %
01.03.2019 22:02 5,4 C 5,0 C 4,4 C 89 % 1016,8 hPa 0,0 l/m 0 min 0 min 0 W/m 3,2 km/h (1 Bft) 97,87 %
01.03.2019 22:04 5,4 C 5,0 C 4,4 C 88 % 1016,7 hPa 0,0 l/m 0 min 0 min 0 W/m 3,2 km/h (1 Bft) 95,74 %
01.03.2019 22:06 5,4 C 5,0 C 4,4 C 88 % 1016,7 hPa 0,0 l/m 0 min 0 min 0 W/m 3,2 km/h (1 Bft) 95,65 %
01.03.2019 22:08 5,4 C 5,0 C 4,4 C 88 % 1016,8 hPa 0,0 l/m 0 min 0 min 0 W/m 3,2 km/h (1 Bft) 97,87 %
01.03.2019 22:10 5,4 C 5,0 C 4,4 C 88 % 1016,8 hPa 0,0 l/m 0 min 0 min 0 W/m 3,2 km/h (1 Bft) 95,74 %
01.03.2019 22:12 5,4 C 5,0 C 4,4 C 88 % 1016,8 hPa 0,0 l/m 0 min 0 min 0 W/m 3,2 km/h (1 Bft) 97,87 %
01.03.2019 22:14 5,4 C 5,0 C 4,4 C 88 % 1016,7 hPa 0,0 l/m 0 min 0 min 0 W/m 3,2 km/h (1 Bft) 97,87 %
01.03.2019 22:16 5,4 C 5,0 C 4,4 C 88 % 1016,8 hPa 0,0 l/m 0 min 0 min 0 W/m 6,4 km/h (2 Bft) 97,87 %
01.03.2019 22:18 5,4 C 5,0 C 4,4 C 88 % 1016,8 hPa 0,0 l/m 0 min 0 min 0 W/m 12,9 km/h (3 Bft) 95,65 %
01.03.2019 22:20 5,4 C 5,0 C 4,4 C 88 % 1016,8 hPa 0,0 l/m 0 min 0 min 0 W/m 9,7 km/h (2 Bft) 97,87 %
01.03.2019 22:26 5,4 C 5,0 C 4,4 C 88 % 1016,8 hPa 0,0 l/m 0 min 0 min 0 W/m 3,2 km/h (1 Bft) 96,08 %
01.03.2019 22:28 5,4 C 5,0 C 4,4 C 88 % 1016,7 hPa 0,0 l/m 0 min 0 min 0 W/m 6,4 km/h (2 Bft) 97,56 %
01.03.2019 22:30 5,4 C 5,0 C 4,4 C 88 % 1016,8 hPa 0,0 l/m 0 min 0 min 0 W/m 6,4 km/h (2 Bft) 95,92 %
01.03.2019 22:32 5,5 C 5,0 C 4,4 C 88 % 1016,7 hPa 0,0 l/m 0 min 0 min 0 W/m 3,2 km/h (1 Bft) 94,00 %
01.03.2019 22:34 5,5 C 5,0 C 4,4 C 88 % 1016,8 hPa 0,0 l/m 0 min 0 min 0 W/m 3,2 km/h (1 Bft) 100,00 %
01.03.2019 22:36 5,5 C 5,0 C 4,4 C 88 % 1016,7 hPa 0,0 l/m 0 min 0 min 0 W/m 0,0 km/h (0 Bft) 96,30 %
01.03.2019 22:38 5,5 C 5,0 C 4,4 C 88 % 1016,7 hPa 0,0 l/m 0 min 0 min 0 W/m 0,0 km/h (0 Bft) 97,67 %
01.03.2019 22:40 5,5 C 5,0 C 4,4 C 88 % 1016,7 hPa 0,0 l/m 0 min 0 min 0 W/m 3,2 km/h (1 Bft) 97,96 %
01.03.2019 22:42 5,5 C 5,0 C 4,4 C 88 % 1016,7 hPa 0,0 l/m 0 min 0 min 0 W/m 0,0 km/h (0 Bft) 97,96 %
01.03.2019 22:44 5,5 C 5,0 C 4,4 C 88 % 1016,7 hPa 0,0 l/m 0 min 0 min 0 W/m 3,2 km/h (1 Bft) 97,87 %
01.03.2019 22:46 5,5 C 5,0 C 4,4 C 88 % 1016,7 hPa 0,0 l/m 0 min 0 min 0 W/m 3,2 km/h (1 Bft) 97,96 %
01.03.2019 22:48 5,5 C 5,0 C 4,4 C 88 % 1016,7 hPa 0,0 l/m 0 min 0 min 0 W/m 6,4 km/h (2 Bft) 97,87 %
01.03.2019 22:50 5,5 C 5,0 C 4,4 C 88 % 1016,7 hPa 0,0 l/m 0 min 0 min 0 W/m 3,2 km/h (1 Bft) 98,00 %
01.03.2019 22:52 5,5 C 5,0 C 4,4 C 88 % 1016,7 hPa 0,0 l/m 0 min 0 min 0 W/m 3,2 km/h (1 Bft) 95,74 %
01.03.2019 22:54 5,5 C 5,0 C 4,4 C 88 % 1016,6 hPa 0,0 l/m 0 min 0 min 0 W/m 6,4 km/h (2 Bft) 97,37 %
01.03.2019 22:56 5,6 C 5,0 C 4,4 C 88 % 1016,6 hPa 0,0 l/m 0 min 0 min 0 W/m 6,4 km/h (2 Bft) 97,56 %
01.03.2019 22:58 5,6 C 5,0 C 4,4 C 88 % 1016,6 hPa 0,0 l/m 0 min 0 min 0 W/m 6,4 km/h (2 Bft) 96,00 %
01.03.2019 23:00 5,6 C 5,0 C 4,4 C 88 % 1016,7 hPa 0,0 l/m 0 min 0 min 0 W/m 3,2 km/h (1 Bft) 97,87 %
01.03.2019 23:02 5,6 C 5,0 C 4,4 C 88 % 1016,7 hPa 0,0 l/m 0 min 0 min 0 W/m 6,4 km/h (2 Bft) 97,96 %
01.03.2019 23:04 5,6 C 5,0 C 4,4 C 88 % 1016,8 hPa 0,0 l/m 0 min 0 min 0 W/m 6,4 km/h (2 Bft) 97,87 %
01.03.2019 23:06 5,6 C 5,0 C 4,4 C 88 % 1016,7 hPa 0,0 l/m 0 min 0 min 0 W/m 3,2 km/h (1 Bft) 96,43 %
01.03.2019 23:08 5,6 C 5,0 C 4,4 C 88 % 1016,7 hPa 0,0 l/m 0 min 0 min 0 W/m 6,4 km/h (2 Bft) 97,67 %
01.03.2019 23:10 5,6 C 5,0 C 4,4 C 88 % 1016,8 hPa 0,0 l/m 0 min 0 min 0 W/m 6,4 km/h (2 Bft) 97,92 %
01.03.2019 23:12 5,6 C 5,0 C 4,4 C 88 % 1016,8 hPa 0,0 l/m 0 min 0 min 0 W/m 6,4 km/h (2 Bft) 97,37 %
01.03.2019 23:14 5,6 C 5,0 C 4,4 C 88 % 1016,9 hPa 0,0 l/m 0 min 0 min 0 W/m 3,2 km/h (1 Bft) 93,75 %
01.03.2019 23:16 5,6 C 5,0 C 4,4 C 88 % 1016,8 hPa 0,0 l/m 0 min 0 min 0 W/m 6,4 km/h (2 Bft) 97,87 %
01.03.2019 23:18 5,6 C 5,0 C 4,4 C 88 % 1016,8 hPa 0,0 l/m 0 min 0 min 0 W/m 3,2 km/h (1 Bft) 98,00 %
01.03.2019 23:20 5,6 C 5,0 C 4,4 C 88 % 1016,9 hPa 0,0 l/m 0 min 0 min 0 W/m 9,7 km/h (2 Bft) 97,96 %
01.03.2019 23:22 5,6 C 5,0 C 4,4 C 88 % 1016,9 hPa 0,0 l/m 0 min 0 min 0 W/m 9,7 km/h (2 Bft) 97,96 %
01.03.2019 23:24 5,6 C 5,0 C 4,4 C 88 % 1016,8 hPa 0,0 l/m 0 min 0 min 0 W/m 6,4 km/h (2 Bft) 97,92 %
01.03.2019 23:26 5,6 C 5,0 C 4,4 C 88 % 1016,9 hPa 0,0 l/m 0 min 0 min 0 W/m 12,9 km/h (3 Bft) 100,00 %
01.03.2019 23:28 5,6 C 5,0 C 4,4 C 88 % 1016,8 hPa 0,0 l/m 0 min 0 min 0 W/m 6,4 km/h (2 Bft) 100,00 %
01.03.2019 23:30 5,7 C 5,0 C 4,4 C 88 % 1016,9 hPa 0,0 l/m 0 min 0 min 0 W/m 6,4 km/h (2 Bft) 98,00 %
01.03.2019 23:32 5,7 C 5,0 C 4,4 C 88 % 1016,9 hPa 0,0 l/m 0 min 0 min 0 W/m 6,4 km/h (2 Bft) 97,96 %
01.03.2019 23:34 5,7 C 5,0 C 4,4 C 88 % 1016,9 hPa 0,0 l/m 0 min 0 min 0 W/m 9,7 km/h (2 Bft) 100,00 %
01.03.2019 23:36 5,7 C 5,0 C 4,4 C 88 % 1016,8 hPa 0,0 l/m 0 min 0 min 0 W/m 9,7 km/h (2 Bft) 100,00 %
01.03.2019 23:38 5,7 C 5,0 C 4,4 C 88 % 1016,9 hPa 0,0 l/m 0 min 0 min 0 W/m 6,4 km/h (2 Bft) 100,00 %
01.03.2019 23:40 5,7 C 5,0 C 4,4 C 89 % 1016,9 hPa 0,0 l/m 0 min 0 min 0 W/m 9,7 km/h (2 Bft) 97,96 %
01.03.2019 23:42 5,7 C 5,0 C 4,4 C 89 % 1016,9 hPa 0,0 l/m 0 min 0 min 0 W/m 9,7 km/h (2 Bft) 95,92 %
01.03.2019 23:44 5,7 C 5,0 C 4,4 C 89 % 1016,9 hPa 0,0 l/m 0 min 0 min 0 W/m 6,4 km/h (2 Bft) 97,87 %
01.03.2019 23:46 5,7 C 5,0 C 4,4 C 89 % 1017,0 hPa 0,0 l/m 0 min 0 min 0 W/m 9,7 km/h (2 Bft) 100,00 %
01.03.2019 23:48 5,7 C 5,0 C 4,4 C 89 % 1016,9 hPa 0,0 l/m 0 min 0 min 0 W/m 6,4 km/h (2 Bft) 97,87 %
01.03.2019 23:50 5,7 C 5,0 C 4,4 C 89 % 1016,9 hPa 0,0 l/m 0 min 0 min 0 W/m 3,2 km/h (1 Bft) 100,00 %
01.03.2019 23:52 5,7 C 5,0 C 4,4 C 89 % 1016,9 hPa 0,0 l/m 0 min 0 min 0 W/m 6,4 km/h (2 Bft) 100,00 %
01.03.2019 23:54 5,7 C 5,0 C 4,4 C 89 % 1016,9 hPa 0,0 l/m 0 min 0 min 0 W/m 3,2 km/h (1 Bft) 100,00 %
01.03.2019 23:56 5,7 C 5,0 C 4,4 C 89 % 1016,8 hPa 0,0 l/m 0 min 0 min 0 W/m 6,4 km/h (2 Bft) 97,87 %
01.03.2019 23:58 5,7 C 5,0 C 4,4 C 89 % 1016,8 hPa 0,0 l/m 0 min 0 min 0 W/m 9,7 km/h (2 Bft) 97,87 %
_ Min-Zeit 20:50 18:12 18:32 22:04 05:14 - - - - 02:08 07:06
Minimum _ 5,3 C 5,0 C 3,9 C 88 % 1008,7 hPa - - - - 0,0 km/h (0 Bft) 89,13 %
_ Max-Zeit 00:00 00:00 00:00 12:36 23:46 00:04 00:00 12:08 11:14 13:34 00:24
Maximum _ 9,3 C 7,8 C 7,8 C 98 % 1017,0 hPa 0,2 l/m 0 min 4 min 110 W/m 38,6 km/h
NW (5 Bft)
100,00 %
Durchschnitt _ 7,1 C 6,3 C 5,8 C 95 % 1012,8 hPa #1,2 l/m #0 min. #2:20 h 28 W/m 9,5 km/h (2 Bft) 97,41 %
© 2019 W. Hausmann